Time,TemperatureF,DewpointF,PressureIn,WindDirection,WindDirectionDegrees,WindSpeedMPH,WindSpeedGustMPH,Humidity,HourlyPrecipIn,Conditions,Clouds,dailyrainin,SoftwareType,DateUTC
2013-01-01 00:00:00,26.1,19.9,30.09,NNW,344,5.0,6.0,77,0.00,,,0.00,Wunderground v.1.15,2013-01-01 05:00:00,
2013-01-01 00:01:00,26.0,19.5,30.09,WNW,300,2.0,6.0,76,0.00,,,0.00,Wunderground v.1.15,2013-01-01 05:01:00,
2013-01-01 00:03:00,26.0,19.5,30.09,NW,316,2.0,6.0,76,0.00,,,0.00,Wunderground v.1.15,2013-01-01 05:03:00,
2013-01-01 00:04:00,26.1,19.6,30.09,West,278,1.0,6.0,76,0.00,,,0.00,Wunderground v.1.15,2013-01-01 05:04:00,
2013-01-01 00:06:00,26.0,19.5,30.09,WNW,285,1.0,6.0,76,0.00,,,0.00,Wunderground v.1.15,2013-01-01 05:06:00,
2013-01-01 00:09:00,26.0,19.5,30.09,West,268,1.0,6.0,76,0.00,,,0.00,Wunderground v.1.15,2013-01-01 05:09:00,
2013-01-01 00:11:00,25.9,19.4,30.09,West,277,2.0,4.0,76,0.00,,,0.00,Wunderground v.1.15,2013-01-01 05:11:00,
2013-01-01 00:15:00,25.9,19.1,30.09,NNW,329,3.0,4.0,75,0.00,,,0.00,Wunderground v.1.15,2013-01-01 05:15:00,
2013-01-01 00:16:00,25.9,19.1,30.09,NW,306,4.0,4.0,75,0.00,,,0.00,Wunderground v.1.15,2013-01-01 05:16:00,
2013-01-01 00:18:00,25.9,19.1,30.09,WNW,293,1.0,4.0,75,0.00,,,0.00,Wunderground v.1.15,2013-01-01 05:18:00,
2013-01-01 00:19:00,25.9,19.1,30.09,WNW,297,4.0,4.0,75,0.00,,,0.00,Wunderground v.1.15,2013-01-01 05:19:00,
2013-01-01 00:20:00,25.9,19.1,30.09,West,275,2.0,3.0,75,0.00,,,0.00,Wunderground v.1.15,2013-01-01 05:20:00,
2013-01-01 00:21:00,25.9,19.1,30.09,NNW,330,3.0,3.0,75,0.00,,,0.00,Wunderground v.1.15,2013-01-01 05:21:00,
2013-01-01 00:24:00,25.8,18.7,30.09,NW,313,1.0,3.0,74,0.00,,,0.00,Wunderground v.1.15,2013-01-01 05:24:00,
2013-01-01 00:26:00,25.8,19.0,30.09,West,276,1.0,3.0,75,0.00,,,0.00,Wunderground v.1.15,2013-01-01 05:26:00,
2013-01-01 00:27:00,25.8,19.0,30.09,WNW,294,1.0,3.0,75,0.00,,,0.00,Wunderground v.1.15,2013-01-01 05:27:00,
2013-01-01 00:28:00,25.7,18.9,30.09,NW,316,1.0,3.0,75,0.00,,,0.00,Wunderground v.1.15,2013-01-01 05:28:00,
2013-01-01 00:30:00,25.7,18.9,30.09,West,271,0.0,1.0,75,0.00,,,0.00,Wunderground v.1.15,2013-01-01 05:30:00,
2013-01-01 00:31:00,25.7,18.9,30.09,West,271,0.0,1.0,75,0.00,,,0.00,Wunderground v.1.15,2013-01-01 05:31:00,
2013-01-01 00:33:00,25.7,18.6,30.09,West,277,1.0,1.0,74,0.00,,,0.00,Wunderground v.1.15,2013-01-01 05:33:00,
2013-01-01 00:35:00,25.6,18.5,30.09,West,276,1.0,1.0,74,0.00,,,0.00,Wunderground v.1.15,2013-01-01 05:35:00,
2013-01-01 00:37:00,25.6,18.5,30.09,NNW,339,2.0,2.0,74,0.00,,,0.00,Wunderground v.1.15,2013-01-01 05:37:00,
2013-01-01 00:39:00,25.6,18.5,30.09,West,274,2.0,2.0,74,0.00,,,0.00,Wunderground v.1.15,2013-01-01 05:39:00,
2013-01-01 00:40:00,25.6,18.5,30.09,WNW,300,1.0,1.0,74,0.00,,,0.00,Wunderground v.1.15,2013-01-01 05:40:00,
2013-01-01 00:41:00,25.6,18.5,30.09,NW,310,1.0,1.0,74,0.00,,,0.00,Wunderground v.1.15,2013-01-01 05:41:00,
2013-01-01 00:44:00,25.5,18.4,30.09,WNW,301,2.0,2.0,74,0.00,,,0.00,Wunderground v.1.15,2013-01-01 05:44:00,
2013-01-01 00:45:00,25.5,18.4,30.09,West,278,3.0,3.0,74,0.00,,,0.00,Wunderground v.1.15,2013-01-01 05:45:00,
2013-01-01 00:46:00,25.5,18.4,30.09,NW,309,1.0,3.0,74,0.00,,,0.00,Wunderground v.1.15,2013-01-01 05:46:00,
2013-01-01 00:50:00,25.5,18.4,30.09,WSW,257,2.0,3.0,74,0.00,,,0.00,Wunderground v.1.15,2013-01-01 05:50:00,
2013-01-01 00:52:00,25.5,18.4,30.09,WNW,301,1.0,3.0,74,0.00,,,0.00,Wunderground v.1.15,2013-01-01 05:52:00,
2013-01-01 00:55:00,25.4,18.3,30.09,NW,320,1.0,3.0,74,0.00,,,0.00,Wunderground v.1.15,2013-01-01 05:55:00,
2013-01-01 00:57:00,25.4,18.3,30.09,WNW,297,1.0,3.0,74,0.00,,,0.00,Wunderground v.1.15,2013-01-01 05:57:00,
2013-01-01 00:58:00,25.4,18.3,30.09,NW,307,1.0,3.0,74,0.00,,,0.00,Wunderground v.1.15,2013-01-01 05:58:00,
2013-01-01 01:04:00,25.4,18.6,30.09,NW,308,1.0,3.0,75,0.00,,,0.00,Wunderground v.1.15,2013-01-01 06:04:00,
2013-01-01 01:05:00,25.3,18.5,30.09,NW,308,2.0,3.0,75,0.00,,,0.00,Wunderground v.1.15,2013-01-01 06:05:00,
2013-01-01 01:06:00,25.4,18.6,30.08,NNW,331,0.0,3.0,75,0.00,,,0.00,Wunderground v.1.15,2013-01-01 06:06:00,
2013-01-01 01:08:00,25.3,18.5,30.08,WNW,294,1.0,3.0,75,0.00,,,0.00,Wunderground v.1.15,2013-01-01 06:08:00,
2013-01-01 01:11:00,25.2,18.4,30.08,NW,306,1.0,2.0,75,0.00,,,0.00,Wunderground v.1.15,2013-01-01 06:11:00,
2013-01-01 01:13:00,25.3,18.5,30.08,North,353,2.0,3.0,75,0.00,,,0.00,Wunderground v.1.15,2013-01-01 06:13:00,
2013-01-01 01:16:00,25.2,18.4,30.09,NW,309,3.0,4.0,75,0.00,,,0.00,Wunderground v.1.15,2013-01-01 06:16:00,
2013-01-01 01:17:00,25.2,18.4,30.09,NW,314,3.0,4.0,75,0.00,,,0.00,Wunderground v.1.15,2013-01-01 06:17:00,
2013-01-01 01:19:00,25.2,18.4,30.09,West,269,2.0,4.0,75,0.00,,,0.00,Wunderground v.1.15,2013-01-01 06:19:00,
2013-01-01 01:21:00,25.2,18.4,30.09,NW,304,2.0,3.0,75,0.00,,,0.00,Wunderground v.1.15,2013-01-01 06:21:00,
2013-01-01 01:22:00,25.1,18.3,30.09,West,269,1.0,3.0,75,0.00,,,0.00,Wunderground v.1.15,2013-01-01 06:22:00,
2013-01-01 01:26:00,25.1,18.3,30.09,West,271,2.0,5.0,75,0.00,,,0.00,Wunderground v.1.15,2013-01-01 06:26:00,
2013-01-01 01:28:00,25.1,18.3,30.09,West,270,3.0,5.0,75,0.00,,,0.00,Wunderground v.1.15,2013-01-01 06:28:00,
2013-01-01 01:30:00,25.1,18.3,30.09,WSW,240,1.0,2.0,75,0.00,,,0.00,Wunderground v.1.15,2013-01-01 06:30:00,
2013-01-01 01:33:00,25.0,18.2,30.09,NW,309,1.0,4.0,75,0.00,,,0.00,Wunderground v.1.15,2013-01-01 06:33:00,
2013-01-01 01:36:00,25.0,18.2,30.09,WNW,298,1.0,4.0,75,0.00,,,0.00,Wunderground v.1.15,2013-01-01 06:36:00,
2013-01-01 01:41:00,24.9,18.1,30.09,NW,316,2.0,2.0,75,0.00,,,0.00,Wunderground v.1.15,2013-01-01 06:41:00,
2013-01-01 01:42:00,24.9,18.1,30.09,NNW,330,3.0,3.0,75,0.00,,,0.00,Wunderground v.1.15,2013-01-01 06:42:00,
2013-01-01 01:43:00,24.8,18.0,30.09,WNW,293,1.0,3.0,75,0.00,,,0.00,Wunderground v.1.15,2013-01-01 06:43:00,
2013-01-01 01:48:00,24.8,18.0,30.09,WSW,256,2.0,3.0,75,0.00,,,0.00,Wunderground v.1.15,2013-01-01 06:48:00,
2013-01-01 01:49:00,24.8,18.0,30.09,NW,317,2.0,3.0,75,0.00,,,0.00,Wunderground v.1.15,2013-01-01 06:49:00,
2013-01-01 01:51:00,24.8,18.0,30.09,WNW,297,2.0,2.0,75,0.00,,,0.00,Wunderground v.1.15,2013-01-01 06:51:00,
2013-01-01 01:54:00,24.8,18.0,30.09,NW,307,1.0,2.0,75,0.00,,,0.00,Wunderground v.1.15,2013-01-01 06:54:00,
2013-01-01 01:56:00,24.7,17.9,30.09,West,266,1.0,2.0,75,0.00,,,0.00,Wunderground v.1.15,2013-01-01 06:56:00,
2013-01-01 02:00:00,24.7,17.9,30.10,WNW,291,1.0,1.0,75,0.00,,,0.00,Wunderground v.1.15,2013-01-01 07:00:00,
2013-01-01 02:01:00,24.7,17.9,30.10,West,276,1.0,1.0,75,0.00,,,0.00,Wunderground v.1.15,2013-01-01 07:01:00,
2013-01-01 02:06:00,24.7,17.9,30.09,West,266,2.0,5.0,75,0.00,,,0.00,Wunderground v.1.15,2013-01-01 07:06:00,
2013-01-01 02:11:00,24.6,17.5,30.09,NW,311,3.0,3.0,74,0.00,,,0.00,Wunderground v.1.15,2013-01-01 07:11:00,
2013-01-01 02:16:00,24.6,17.5,30.09,WNW,301,3.0,6.0,74,0.00,,,0.00,Wunderground v.1.15,2013-01-01 07:16:00,
2013-01-01 02:17:00,24.6,17.8,30.09,West,270,0.0,6.0,75,0.00,,,0.00,Wunderground v.1.15,2013-01-01 07:17:00,
2013-01-01 02:21:00,24.5,17.7,30.10,NW,320,2.0,5.0,75,0.00,,,0.00,Wunderground v.1.15,2013-01-01 07:21:00,
2013-01-01 02:22:00,24.5,17.7,30.10,WNW,293,1.0,5.0,75,0.00,,,0.00,Wunderground v.1.15,2013-01-01 07:22:00,
2013-01-01 02:26:00,24.5,17.7,30.10,WNW,301,1.0,5.0,75,0.00,,,0.00,Wunderground v.1.15,2013-01-01 07:26:00,
2013-01-01 02:27:00,24.5,17.7,30.10,NW,306,1.0,5.0,75,0.00,,,0.00,Wunderground v.1.15,2013-01-01 07:27:00,
2013-01-01 02:31:00,24.4,17.6,30.10,North,359,2.0,4.0,75,0.00,,,0.00,Wunderground v.1.15,2013-01-01 07:31:00,
2013-01-01 02:32:00,24.4,17.6,30.10,NW,314,3.0,4.0,75,0.00,,,0.00,Wunderground v.1.15,2013-01-01 07:32:00,
2013-01-01 02:33:00,24.4,17.6,30.10,West,273,1.0,4.0,75,0.00,,,0.00,Wunderground v.1.15,2013-01-01 07:33:00,
2013-01-01 02:36:00,24.4,17.6,30.10,NW,322,2.0,6.0,75,0.00,,,0.00,Wunderground v.1.15,2013-01-01 07:36:00,
2013-01-01 02:37:00,24.4,17.6,30.10,WNW,287,2.0,6.0,75,0.00,,,0.00,Wunderground v.1.15,2013-01-01 07:37:00,
2013-01-01 02:38:00,24.4,17.9,30.11,WNW,290,0.0,6.0,76,0.00,,,0.00,Wunderground v.1.15,2013-01-01 07:38:00,
2013-01-01 02:41:00,24.3,17.8,30.11,NNW,339,3.0,3.0,76,0.00,,,0.00,Wunderground v.1.15,2013-01-01 07:41:00,
2013-01-01 02:42:00,24.3,17.8,30.11,WNW,295,1.0,3.0,76,0.00,,,0.00,Wunderground v.1.15,2013-01-01 07:42:00,
2013-01-01 02:44:00,24.3,17.8,30.11,WNW,291,1.0,6.0,76,0.00,,,0.00,Wunderground v.1.15,2013-01-01 07:44:00,
2013-01-01 02:47:00,24.3,17.8,30.11,NW,311,3.0,6.0,76,0.00,,,0.00,Wunderground v.1.15,2013-01-01 07:47:00,
2013-01-01 02:49:00,24.3,18.1,30.11,WNW,284,2.0,6.0,77,0.00,,,0.00,Wunderground v.1.15,2013-01-01 07:49:00,
2013-01-01 02:52:00,24.2,18.0,30.11,WNW,300,3.0,3.0,77,0.00,,,0.00,Wunderground v.1.15,2013-01-01 07:52:00,
2013-01-01 02:53:00,24.2,18.0,30.11,NW,307,3.0,3.0,77,0.00,,,0.00,Wunderground v.1.15,2013-01-01 07:53:00,
2013-01-01 02:54:00,24.2,18.0,30.11,NW,310,1.0,3.0,77,0.00,,,0.00,Wunderground v.1.15,2013-01-01 07:54:00,
2013-01-01 02:57:00,24.2,18.0,30.11,NW,304,5.0,6.0,77,0.00,,,0.00,Wunderground v.1.15,2013-01-01 07:57:00,
2013-01-01 02:58:00,24.2,18.0,30.11,NW,323,1.0,6.0,77,0.00,,,0.00,Wunderground v.1.15,2013-01-01 07:58:00,
2013-01-01 02:59:00,24.2,18.0,30.11,NW,323,1.0,6.0,77,0.00,,,0.00,Wunderground v.1.15,2013-01-01 07:59:00,
2013-01-01 03:02:00,24.2,18.0,30.11,NW,326,1.0,5.0,77,0.00,,,0.00,Wunderground v.1.15,2013-01-01 08:02:00,
2013-01-01 03:03:00,24.2,18.0,30.11,WNW,302,3.0,5.0,77,0.00,,,0.00,Wunderground v.1.15,2013-01-01 08:03:00,
2013-01-01 03:04:00,24.2,18.0,30.11,WNW,287,1.0,5.0,77,0.00,,,0.00,Wunderground v.1.15,2013-01-01 08:04:00,
2013-01-01 03:08:00,24.1,17.9,30.11,WNW,301,1.0,5.0,77,0.00,,,0.00,Wunderground v.1.15,2013-01-01 08:08:00,
2013-01-01 03:09:00,24.1,17.9,30.10,NW,321,2.0,5.0,77,0.00,,,0.00,Wunderground v.1.15,2013-01-01 08:09:00,
2013-01-01 03:13:00,24.1,17.9,30.10,WNW,291,1.0,5.0,77,0.00,,,0.00,Wunderground v.1.15,2013-01-01 08:13:00,
2013-01-01 03:14:00,24.0,17.8,30.10,NW,317,2.0,5.0,77,0.00,,,0.00,Wunderground v.1.15,2013-01-01 08:14:00,
2013-01-01 03:18:00,24.0,17.8,30.11,NW,311,3.0,5.0,77,0.00,,,0.00,Wunderground v.1.15,2013-01-01 08:18:00,
2013-01-01 03:19:00,24.0,18.1,30.11,NW,323,2.0,5.0,78,0.00,,,0.00,Wunderground v.1.15,2013-01-01 08:19:00,
2013-01-01 03:23:00,24.0,17.8,30.11,WNW,299,1.0,4.0,77,0.00,,,0.00,Wunderground v.1.15,2013-01-01 08:23:00,
2013-01-01 03:24:00,23.9,17.7,30.11,NW,316,2.0,4.0,77,0.00,,,0.00,Wunderground v.1.15,2013-01-01 08:24:00,
2013-01-01 03:25:00,24.0,17.8,30.11,NW,316,1.0,4.0,77,0.00,,,0.00,Wunderground v.1.15,2013-01-01 08:25:00,
2013-01-01 03:28:00,23.9,17.7,30.11,WNW,285,0.0,4.0,77,0.00,,,0.00,Wunderground v.1.15,2013-01-01 08:28:00,
2013-01-01 03:29:00,23.9,18.0,30.11,WNW,285,0.0,4.0,78,0.00,,,0.00,Wunderground v.1.15,2013-01-01 08:29:00,
2013-01-01 03:30:00,23.9,18.0,30.11,North,352,3.0,3.0,78,0.00,,,0.00,Wunderground v.1.15,2013-01-01 08:30:00,
2013-01-01 03:33:00,23.8,17.9,30.11,NNW,332,1.0,3.0,78,0.00,,,0.00,Wunderground v.1.15,2013-01-01 08:33:00,
2013-01-01 03:34:00,23.8,17.9,30.11,North,355,1.0,3.0,78,0.00,,,0.00,Wunderground v.1.15,2013-01-01 08:34:00,
2013-01-01 03:35:00,23.8,17.6,30.11,North,353,1.0,4.0,77,0.00,,,0.00,Wunderground v.1.15,2013-01-01 08:35:00,
2013-01-01 03:39:00,23.7,17.2,30.12,WNW,293,2.0,5.0,76,0.00,,,0.00,Wunderground v.1.15,2013-01-01 08:39:00,
2013-01-01 03:41:00,23.7,17.2,30.11,West,271,0.0,2.0,76,0.00,,,0.00,Wunderground v.1.15,2013-01-01 08:41:00,
2013-01-01 03:44:00,23.6,17.1,30.11,NW,309,0.0,6.0,76,0.00,,,0.00,Wunderground v.1.15,2013-01-01 08:44:00,
2013-01-01 03:46:00,23.6,17.1,30.11,NNW,333,0.0,6.0,76,0.00,,,0.00,Wunderground v.1.15,2013-01-01 08:46:00,
2013-01-01 03:49:00,23.5,17.0,30.11,NW,315,1.0,6.0,76,0.00,,,0.00,Wunderground v.1.15,2013-01-01 08:49:00,
2013-01-01 03:51:00,23.5,17.0,30.11,NNE,15,2.0,4.0,76,0.00,,,0.00,Wunderground v.1.15,2013-01-01 08:51:00,
2013-01-01 03:54:00,23.4,16.9,30.11,NNW,332,0.0,4.0,76,0.00,,,0.00,Wunderground v.1.15,2013-01-01 08:54:00,
2013-01-01 03:57:00,23.4,16.9,30.11,NW,308,0.0,4.0,76,0.00,,,0.00,Wunderground v.1.15,2013-01-01 08:57:00,
2013-01-01 03:59:00,23.4,16.9,30.12,NNE,15,2.0,5.0,76,0.00,,,0.00,Wunderground v.1.15,2013-01-01 08:59:00,
2013-01-01 04:00:00,23.3,16.9,30.12,North,1,6.0,6.0,76,0.00,,,0.00,Wunderground v.1.15,2013-01-01 09:00:00,
2013-01-01 04:02:00,23.3,16.9,30.12,NNW,335,1.0,6.0,76,0.00,,,0.00,Wunderground v.1.15,2013-01-01 09:02:00,
2013-01-01 04:04:00,23.2,16.4,30.11,ENE,57,4.0,6.0,75,0.00,,,0.00,Wunderground v.1.15,2013-01-01 09:04:00,
2013-01-01 04:05:00,23.2,16.4,30.11,NNE,28,3.0,6.0,75,0.00,,,0.00,Wunderground v.1.15,2013-01-01 09:05:00,
2013-01-01 04:06:00,23.1,16.4,30.11,West,270,1.0,7.0,75,0.00,,,0.00,Wunderground v.1.15,2013-01-01 09:06:00,
2013-01-01 04:09:00,23.0,16.3,30.11,NW,326,1.0,7.0,75,0.00,,,0.00,Wunderground v.1.15,2013-01-01 09:09:00,
2013-01-01 04:11:00,23.0,16.3,30.12,WNW,302,1.0,2.0,75,0.00,,,0.00,Wunderground v.1.15,2013-01-01 09:11:00,
2013-01-01 04:12:00,23.0,16.3,30.11,NW,322,0.0,2.0,75,0.00,,,0.00,Wunderground v.1.15,2013-01-01 09:12:00,
2013-01-01 04:14:00,22.9,16.2,30.12,West,262,2.0,3.0,75,0.00,,,0.00,Wunderground v.1.15,2013-01-01 09:14:00,
2013-01-01 04:16:00,22.9,16.2,30.12,WNW,302,1.0,3.0,75,0.00,,,0.00,Wunderground v.1.15,2013-01-01 09:16:00,
2013-01-01 04:17:00,22.9,16.2,30.11,NNE,13,3.0,7.0,75,0.00,,,0.00,Wunderground v.1.15,2013-01-01 09:17:00,
2013-01-01 04:19:00,22.8,16.1,30.12,NNE,26,3.0,8.0,75,0.00,,,0.00,Wunderground v.1.15,2013-01-01 09:19:00,
2013-01-01 04:21:00,22.7,16.0,30.11,North,3,2.0,4.0,75,0.00,,,0.00,Wunderground v.1.15,2013-01-01 09:21:00,
2013-01-01 04:22:00,22.7,16.0,30.11,NW,308,0.0,4.0,75,0.00,,,0.00,Wunderground v.1.15,2013-01-01 09:22:00,
2013-01-01 04:24:00,22.6,16.2,30.11,NNW,332,2.0,7.0,76,0.00,,,0.00,Wunderground v.1.15,2013-01-01 09:24:00,
2013-01-01 04:25:00,22.6,16.2,30.11,North,359,2.0,7.0,76,0.00,,,0.00,Wunderground v.1.15,2013-01-01 09:25:00,
2013-01-01 04:26:00,22.6,16.2,30.11,North,11,4.0,7.0,76,0.00,,,0.00,Wunderground v.1.15,2013-01-01 09:26:00,
2013-01-01 04:27:00,22.5,16.1,30.11,North,354,1.0,7.0,76,0.00,,,0.00,Wunderground v.1.15,2013-01-01 09:27:00,
2013-01-01 04:29:00,22.5,16.1,30.11,NNE,31,6.0,7.0,76,0.00,,,0.00,Wunderground v.1.15,2013-01-01 09:29:00,
2013-01-01 04:30:00,22.5,16.1,30.11,WNW,295,4.0,6.0,76,0.00,,,0.00,Wunderground v.1.15,2013-01-01 09:30:00,
2013-01-01 04:31:00,22.5,16.1,30.12,NNE,24,2.0,6.0,76,0.00,,,0.00,Wunderground v.1.15,2013-01-01 09:31:00,
2013-01-01 04:32:00,22.4,16.0,30.12,NW,324,1.0,6.0,76,0.00,,,0.00,Wunderground v.1.15,2013-01-01 09:32:00,
2013-01-01 04:34:00,22.4,16.0,30.12,West,273,2.0,6.0,76,0.00,,,0.00,Wunderground v.1.15,2013-01-01 09:34:00,
2013-01-01 04:35:00,22.4,16.3,30.12,NW,304,3.0,6.0,77,0.00,,,0.00,Wunderground v.1.15,2013-01-01 09:35:00,
2013-01-01 04:36:00,22.4,16.3,30.12,WNW,295,2.0,6.0,77,0.00,,,0.00,Wunderground v.1.15,2013-01-01 09:36:00,
2013-01-01 04:38:00,22.3,16.2,30.12,NW,308,1.0,6.0,77,0.00,,,0.00,Wunderground v.1.15,2013-01-01 09:38:00,
2013-01-01 04:39:00,22.3,16.2,30.12,West,270,3.0,3.0,77,0.00,,,0.00,Wunderground v.1.15,2013-01-01 09:39:00,
2013-01-01 04:40:00,22.3,16.2,30.12,NW,323,2.0,3.0,77,0.00,,,0.00,Wunderground v.1.15,2013-01-01 09:40:00,
2013-01-01 04:41:00,22.3,16.2,30.12,NW,318,2.0,3.0,77,0.00,,,0.00,Wunderground v.1.15,2013-01-01 09:41:00,
2013-01-01 04:43:00,22.2,16.1,30.13,NW,310,2.0,3.0,77,0.00,,,0.00,Wunderground v.1.15,2013-01-01 09:43:00,
2013-01-01 04:44:00,22.2,16.4,30.13,NW,305,2.0,3.0,78,0.00,,,0.00,Wunderground v.1.15,2013-01-01 09:44:00,
2013-01-01 04:46:00,22.2,16.4,30.12,NW,314,1.0,3.0,78,0.00,,,0.00,Wunderground v.1.15,2013-01-01 09:46:00,
2013-01-01 04:47:00,22.2,16.4,30.12,NW,309,0.0,3.0,78,0.00,,,0.00,Wunderground v.1.15,2013-01-01 09:47:00,
2013-01-01 04:48:00,22.2,16.4,30.12,NW,326,2.0,9.0,78,0.00,,,0.00,Wunderground v.1.15,2013-01-01 09:48:00,
2013-01-01 04:50:00,22.1,16.3,30.12,NNE,16,3.0,4.0,78,0.00,,,0.00,Wunderground v.1.15,2013-01-01 09:50:00,
2013-01-01 04:51:00,22.1,16.3,30.12,NNE,12,2.0,5.0,78,0.00,,,0.00,Wunderground v.1.15,2013-01-01 09:51:00,
2013-01-01 04:52:00,22.1,16.3,30.12,West,274,2.0,5.0,78,0.00,,,0.00,Wunderground v.1.15,2013-01-01 09:52:00,
2013-01-01 04:53:00,22.0,16.5,30.12,NW,317,1.0,5.0,79,0.00,,,0.00,Wunderground v.1.15,2013-01-01 09:53:00,
2013-01-01 04:55:00,22.0,16.5,30.12,WNW,297,3.0,5.0,79,0.00,,,0.00,Wunderground v.1.15,2013-01-01 09:55:00,
2013-01-01 04:56:00,22.0,16.5,30.12,NW,311,2.0,5.0,79,0.00,,,0.00,Wunderground v.1.15,2013-01-01 09:56:00,
2013-01-01 04:57:00,22.0,16.5,30.13,WNW,302,2.0,5.0,79,0.00,,,0.00,Wunderground v.1.15,2013-01-01 09:57:00,
2013-01-01 04:58:00,21.9,16.4,30.13,West,271,3.0,5.0,79,0.00,,,0.00,Wunderground v.1.15,2013-01-01 09:58:00,
2013-01-01 05:00:00,21.9,16.4,30.13,NNE,19,2.0,2.0,79,0.00,,,0.00,Wunderground v.1.15,2013-01-01 10:00:00,
2013-01-01 05:01:00,21.9,16.4,30.13,NW,319,1.0,2.0,79,0.00,,,0.00,Wunderground v.1.15,2013-01-01 10:01:00,
2013-01-01 05:03:00,21.9,16.7,30.13,North,359,1.0,3.0,80,0.00,,,0.00,Wunderground v.1.15,2013-01-01 10:03:00,
2013-01-01 05:04:00,21.9,16.7,30.13,NNW,332,6.0,6.0,80,0.00,,,0.00,Wunderground v.1.15,2013-01-01 10:04:00,
2013-01-01 05:05:00,21.8,16.6,30.13,WNW,287,2.0,6.0,80,0.00,,,0.00,Wunderground v.1.15,2013-01-01 10:05:00,
2013-01-01 05:06:00,21.8,16.6,30.13,North,6,2.0,6.0,80,0.00,,,0.00,Wunderground v.1.15,2013-01-01 10:06:00,
2013-01-01 05:08:00,21.7,16.5,30.13,WNW,302,3.0,6.0,80,0.00,,,0.00,Wunderground v.1.15,2013-01-01 10:08:00,
2013-01-01 05:09:00,21.7,16.5,30.13,NW,319,2.0,6.0,80,0.00,,,0.00,Wunderground v.1.15,2013-01-01 10:09:00,
2013-01-01 05:11:00,21.7,16.5,30.13,NW,316,2.0,3.0,80,0.00,,,0.00,Wunderground v.1.15,2013-01-01 10:11:00,
2013-01-01 05:13:00,21.7,16.5,30.13,NNW,343,1.0,4.0,80,0.00,,,0.00,Wunderground v.1.15,2013-01-01 10:13:00,
2013-01-01 05:14:00,21.6,16.4,30.12,NW,321,2.0,4.0,80,0.00,,,0.00,Wunderground v.1.15,2013-01-01 10:14:00,
2013-01-01 05:16:00,21.6,16.4,30.13,NW,315,4.0,4.0,80,0.00,,,0.00,Wunderground v.1.15,2013-01-01 10:16:00,
2013-01-01 05:18:00,21.6,16.4,30.12,NNW,332,0.0,4.0,80,0.00,,,0.00,Wunderground v.1.15,2013-01-01 10:18:00,
2013-01-01 05:19:00,21.6,16.4,30.12,NW,317,2.0,5.0,80,0.00,,,0.00,Wunderground v.1.15,2013-01-01 10:19:00,
2013-01-01 05:21:00,21.5,16.6,30.12,NW,322,2.0,3.0,81,0.00,,,0.00,Wunderground v.1.15,2013-01-01 10:21:00,
2013-01-01 05:22:00,21.6,16.7,30.12,NW,322,0.0,3.0,81,0.00,,,0.00,Wunderground v.1.15,2013-01-01 10:22:00,
2013-01-01 05:23:00,21.5,16.6,30.12,NNW,329,2.0,3.0,81,0.00,,,0.00,Wunderground v.1.15,2013-01-01 10:23:00,
2013-01-01 05:24:00,21.5,16.6,30.12,NNW,329,1.0,3.0,81,0.00,,,0.00,Wunderground v.1.15,2013-01-01 10:24:00,
2013-01-01 05:26:00,21.5,16.6,30.13,NW,316,0.0,3.0,81,0.00,,,0.00,Wunderground v.1.15,2013-01-01 10:26:00,
2013-01-01 05:27:00,21.5,16.6,30.13,WNW,303,1.0,3.0,81,0.00,,,0.00,Wunderground v.1.15,2013-01-01 10:27:00,
2013-01-01 05:29:00,21.5,16.6,30.13,NW,304,1.0,3.0,81,0.00,,,0.00,Wunderground v.1.15,2013-01-01 10:29:00,
2013-01-01 05:32:00,21.5,16.9,30.14,NW,322,0.0,2.0,82,0.00,,,0.00,Wunderground v.1.15,2013-01-01 10:32:00,
2013-01-01 05:34:00,21.5,16.9,30.13,NW,324,1.0,3.0,82,0.00,,,0.00,Wunderground v.1.15,2013-01-01 10:34:00,
2013-01-01 05:35:00,21.5,16.9,30.13,North,359,1.0,3.0,82,0.00,,,0.00,Wunderground v.1.15,2013-01-01 10:35:00,
2013-01-01 05:37:00,21.5,16.9,30.13,NW,320,1.0,3.0,82,0.00,,,0.00,Wunderground v.1.15,2013-01-01 10:37:00,
2013-01-01 05:39:00,21.4,16.8,30.14,WNW,295,0.0,3.0,82,0.00,,,0.00,Wunderground v.1.15,2013-01-01 10:39:00,
2013-01-01 05:40:00,21.4,16.8,30.14,NE,55,2.0,3.0,82,0.00,,,0.00,Wunderground v.1.15,2013-01-01 10:40:00,
2013-01-01 05:42:00,21.4,16.8,30.14,North,352,2.0,5.0,82,0.00,,,0.00,Wunderground v.1.15,2013-01-01 10:42:00,
2013-01-01 05:44:00,21.4,16.8,30.14,NW,320,2.0,5.0,82,0.00,,,0.00,Wunderground v.1.15,2013-01-01 10:44:00,
2013-01-01 05:45:00,21.3,16.7,30.14,WNW,291,3.0,5.0,82,0.00,,,0.00,Wunderground v.1.15,2013-01-01 10:45:00,
2013-01-01 05:47:00,21.3,16.7,30.14,WNW,284,2.0,6.0,82,0.00,,,0.00,Wunderground v.1.15,2013-01-01 10:47:00,
2013-01-01 05:49:00,21.2,16.6,30.14,NW,322,1.0,6.0,82,0.00,,,0.00,Wunderground v.1.15,2013-01-01 10:49:00,
2013-01-01 05:50:00,21.2,16.6,30.13,NW,307,2.0,4.0,82,0.00,,,0.00,Wunderground v.1.15,2013-01-01 10:50:00,
2013-01-01 05:52:00,21.1,16.2,30.13,NW,316,6.0,6.0,81,0.00,,,0.00,Wunderground v.1.15,2013-01-01 10:52:00,
2013-01-01 05:54:00,21.0,15.8,30.14,NW,311,3.0,6.0,80,0.00,,,0.00,Wunderground v.1.15,2013-01-01 10:54:00,
2013-01-01 05:55:00,20.9,15.4,30.14,WNW,290,1.0,6.0,79,0.00,,,0.00,Wunderground v.1.15,2013-01-01 10:55:00,
2013-01-01 05:57:00,20.8,15.3,30.14,NW,324,2.0,6.0,79,0.00,,,0.00,Wunderground v.1.15,2013-01-01 10:57:00,
2013-01-01 05:59:00,20.8,15.3,30.14,North,5,2.0,6.0,79,0.00,,,0.00,Wunderground v.1.15,2013-01-01 10:59:00,
2013-01-01 06:00:00,20.8,15.3,30.13,NNE,29,1.0,2.0,79,0.00,,,0.00,Wunderground v.1.15,2013-01-01 11:00:00,
2013-01-01 06:02:00,20.7,15.2,30.14,NW,309,3.0,6.0,79,0.00,,,0.00,Wunderground v.1.15,2013-01-01 11:02:00,
2013-01-01 06:03:00,20.7,15.2,30.14,WNW,294,0.0,6.0,79,0.00,,,0.00,Wunderground v.1.15,2013-01-01 11:03:00,
2013-01-01 06:04:00,20.6,14.8,30.14,NW,317,0.0,6.0,78,0.00,,,0.00,Wunderground v.1.15,2013-01-01 11:04:00,
2013-01-01 06:05:00,20.6,14.8,30.14,NW,311,0.0,6.0,78,0.00,,,0.00,Wunderground v.1.15,2013-01-01 11:05:00,
2013-01-01 06:07:00,20.6,14.8,30.13,WNW,283,1.0,6.0,78,0.00,,,0.00,Wunderground v.1.15,2013-01-01 11:07:00,
2013-01-01 06:08:00,20.5,14.7,30.13,WNW,302,1.0,6.0,78,0.00,,,0.00,Wunderground v.1.15,2013-01-01 11:08:00,
2013-01-01 06:09:00,20.5,14.7,30.13,NW,313,0.0,6.0,78,0.00,,,0.00,Wunderground v.1.15,2013-01-01 11:09:00,
2013-01-01 06:10:00,20.5,14.7,30.13,NNE,22,2.0,4.0,78,0.00,,,0.00,Wunderground v.1.15,2013-01-01 11:10:00,
2013-01-01 06:12:00,20.5,14.7,30.13,North,6,2.0,5.0,78,0.00,,,0.00,Wunderground v.1.15,2013-01-01 11:12:00,
2013-01-01 06:13:00,20.4,14.6,30.13,North,3,2.0,5.0,78,0.00,,,0.00,Wunderground v.1.15,2013-01-01 11:13:00,
2013-01-01 06:14:00,20.4,14.6,30.14,West,278,1.0,5.0,78,0.00,,,0.00,Wunderground v.1.15,2013-01-01 11:14:00,
2013-01-01 06:15:00,20.4,14.6,30.14,NW,309,2.0,5.0,78,0.00,,,0.00,Wunderground v.1.15,2013-01-01 11:15:00,
2013-01-01 06:17:00,20.4,14.6,30.14,North,1,2.0,5.0,78,0.00,,,0.00,Wunderground v.1.15,2013-01-01 11:17:00,
2013-01-01 06:18:00,20.3,14.5,30.14,North,360,0.0,5.0,78,0.00,,,0.00,Wunderground v.1.15,2013-01-01 11:18:00,
2013-01-01 06:19:00,20.3,14.5,30.14,NNW,329,5.0,7.0,78,0.00,,,0.00,Wunderground v.1.15,2013-01-01 11:19:00,
2013-01-01 06:21:00,20.3,14.2,30.14,NNE,22,5.0,5.0,77,0.00,,,0.00,Wunderground v.1.15,2013-01-01 11:21:00,
2013-01-01 06:23:00,20.3,14.2,30.14,North,6,2.0,6.0,77,0.00,,,0.00,Wunderground v.1.15,2013-01-01 11:23:00,
2013-01-01 06:24:00,20.2,14.1,30.14,North,8,2.0,6.0,77,0.00,,,0.00,Wunderground v.1.15,2013-01-01 11:24:00,
2013-01-01 06:26:00,20.3,14.2,30.14,NNW,335,0.0,6.0,77,0.00,,,0.00,Wunderground v.1.15,2013-01-01 11:26:00,
2013-01-01 06:28:00,20.2,14.1,30.13,NW,304,5.0,6.0,77,0.00,,,0.00,Wunderground v.1.15,2013-01-01 11:28:00,
2013-01-01 06:29:00,20.2,14.1,30.13,NNW,327,1.0,2.0,77,0.00,,,0.00,Wunderground v.1.15,2013-01-01 11:29:00,
2013-01-01 06:31:00,20.2,14.1,30.14,North,359,2.0,5.0,77,0.00,,,0.00,Wunderground v.1.15,2013-01-01 11:31:00,
2013-01-01 06:33:00,20.2,14.1,30.14,NW,317,5.0,5.0,77,0.00,,,0.00,Wunderground v.1.15,2013-01-01 11:33:00,
2013-01-01 06:35:00,20.1,14.0,30.14,NW,305,2.0,6.0,77,0.00,,,0.00,Wunderground v.1.15,2013-01-01 11:35:00,
2013-01-01 06:36:00,20.2,14.1,30.14,NNW,334,1.0,6.0,77,0.00,,,0.00,Wunderground v.1.15,2013-01-01 11:36:00,
2013-01-01 06:38:00,20.1,14.0,30.14,WNW,300,1.0,6.0,77,0.00,,,0.00,Wunderground v.1.15,2013-01-01 11:38:00,
2013-01-01 06:40:00,20.1,14.0,30.14,NNE,19,6.0,6.0,77,0.00,,,0.00,Wunderground v.1.15,2013-01-01 11:40:00,
2013-01-01 06:41:00,20.1,13.7,30.13,WNW,300,0.0,6.0,76,0.00,,,0.00,Wunderground v.1.15,2013-01-01 11:41:00,
2013-01-01 06:43:00,20.1,13.7,30.13,NNE,20,2.0,6.0,76,0.00,,,0.00,Wunderground v.1.15,2013-01-01 11:43:00,
2013-01-01 06:46:00,20.0,13.6,30.14,WNW,293,1.0,6.0,76,0.00,,,0.00,Wunderground v.1.15,2013-01-01 11:46:00,
2013-01-01 06:48:00,20.0,13.6,30.14,NW,326,2.0,6.0,76,0.00,,,0.00,Wunderground v.1.15,2013-01-01 11:48:00,
2013-01-01 06:51:00,20.0,13.6,30.14,West,274,1.0,4.0,76,0.00,,,0.00,Wunderground v.1.15,2013-01-01 11:51:00,
2013-01-01 06:52:00,20.0,13.6,30.14,NW,311,2.0,4.0,76,0.00,,,0.00,Wunderground v.1.15,2013-01-01 11:52:00,
2013-01-01 06:53:00,20.0,13.6,30.14,NW,321,0.0,4.0,76,0.00,,,0.00,Wunderground v.1.15,2013-01-01 11:53:00,
2013-01-01 06:54:00,19.9,13.6,30.14,NW,322,0.0,4.0,76,0.00,,,0.00,Wunderground v.1.15,2013-01-01 11:54:00,
2013-01-01 06:56:00,19.9,13.6,30.14,NE,36,1.0,4.0,76,0.00,,,0.00,Wunderground v.1.15,2013-01-01 11:56:00,
2013-01-01 06:57:00,19.9,13.6,30.14,NW,316,1.0,4.0,76,0.00,,,0.00,Wunderground v.1.15,2013-01-01 11:57:00,
2013-01-01 06:58:00,19.9,13.6,30.14,NNE,19,0.0,4.0,76,0.00,,,0.00,Wunderground v.1.15,2013-01-01 11:58:00,
2013-01-01 06:59:00,19.9,13.9,30.14,NNE,26,1.0,4.0,77,0.00,,,0.00,Wunderground v.1.15,2013-01-01 11:59:00,
2013-01-01 07:01:00,19.9,13.9,30.14,NNW,332,2.0,4.0,77,0.00,,,0.00,Wunderground v.1.15,2013-01-01 12:01:00,
2013-01-01 07:02:00,19.8,13.8,30.14,NW,319,1.0,4.0,77,0.00,,,0.00,Wunderground v.1.15,2013-01-01 12:02:00,
2013-01-01 07:03:00,19.8,13.8,30.14,NNW,348,1.0,4.0,77,0.00,,,0.00,Wunderground v.1.15,2013-01-01 12:03:00,
2013-01-01 07:04:00,19.9,13.9,30.14,NNW,345,1.0,4.0,77,0.00,,,0.00,Wunderground v.1.15,2013-01-01 12:04:00,
2013-01-01 07:06:00,19.8,13.8,30.15,NW,316,1.0,4.0,77,0.00,,,0.00,Wunderground v.1.15,2013-01-01 12:06:00,
2013-01-01 07:07:00,19.8,13.8,30.15,NW,317,2.0,4.0,77,0.00,,,0.00,Wunderground v.1.15,2013-01-01 12:07:00,
2013-01-01 07:09:00,19.8,13.8,30.15,NW,322,0.0,4.0,77,0.00,,,0.00,Wunderground v.1.15,2013-01-01 12:09:00,
2013-01-01 07:11:00,19.8,13.8,30.16,NW,322,0.0,1.0,77,0.00,,,0.00,Wunderground v.1.15,2013-01-01 12:11:00,
2013-01-01 07:12:00,19.8,13.8,30.16,NW,322,0.0,1.0,77,0.00,,,0.00,Wunderground v.1.15,2013-01-01 12:12:00,
2013-01-01 07:14:00,19.8,13.8,30.16,NW,321,1.0,3.0,77,0.00,,,0.00,Wunderground v.1.15,2013-01-01 12:14:00,
2013-01-01 07:16:00,19.8,13.8,30.16,NNW,329,1.0,3.0,77,0.00,,,0.00,Wunderground v.1.15,2013-01-01 12:16:00,
2013-01-01 07:17:00,19.7,13.7,30.17,WNW,291,1.0,3.0,77,0.00,,,0.00,Wunderground v.1.15,2013-01-01 12:17:00,
2013-01-01 07:19:00,19.8,14.0,30.16,WNW,285,2.0,4.0,78,0.00,,,0.00,Wunderground v.1.15,2013-01-01 12:19:00,
2013-01-01 07:22:00,19.8,14.0,30.16,North,8,4.0,4.0,78,0.00,,,0.00,Wunderground v.1.15,2013-01-01 12:22:00,
2013-01-01 07:23:00,19.8,14.0,30.16,NNW,338,1.0,5.0,78,0.00,,,0.00,Wunderground v.1.15,2013-01-01 12:23:00,
2013-01-01 07:24:00,19.8,14.0,30.17,NNW,335,3.0,5.0,78,0.00,,,0.00,Wunderground v.1.15,2013-01-01 12:24:00,
2013-01-01 07:27:00,19.8,14.0,30.17,NW,324,2.0,5.0,78,0.00,,,0.00,Wunderground v.1.15,2013-01-01 12:27:00,
2013-01-01 07:28:00,19.8,14.0,30.17,NW,304,0.0,5.0,78,0.00,,,0.00,Wunderground v.1.15,2013-01-01 12:28:00,
2013-01-01 07:29:00,19.8,14.0,30.17,NNW,345,0.0,5.0,78,0.00,,,0.00,Wunderground v.1.15,2013-01-01 12:29:00,
2013-01-01 07:32:00,19.7,14.0,30.17,WNW,297,0.0,2.0,78,0.00,,,0.00,Wunderground v.1.15,2013-01-01 12:32:00,
2013-01-01 07:33:00,19.8,14.3,30.17,West,266,0.0,2.0,79,0.00,,,0.00,Wunderground v.1.15,2013-01-01 12:33:00,
2013-01-01 07:34:00,19.8,14.3,30.17,West,266,0.0,2.0,79,0.00,,,0.00,Wunderground v.1.15,2013-01-01 12:34:00,
2013-01-01 07:35:00,19.8,14.3,30.17,NW,314,1.0,2.0,79,0.00,,,0.00,Wunderground v.1.15,2013-01-01 12:35:00,
2013-01-01 07:37:00,19.7,14.2,30.16,NW,316,0.0,2.0,79,0.00,,,0.00,Wunderground v.1.15,2013-01-01 12:37:00,
2013-01-01 07:38:00,19.8,14.3,30.17,NW,316,0.0,2.0,79,0.00,,,0.00,Wunderground v.1.15,2013-01-01 12:38:00,
2013-01-01 07:40:00,19.7,14.2,30.17,NW,316,0.0,0.0,79,0.00,,,0.00,Wunderground v.1.15,2013-01-01 12:40:00,
2013-01-01 07:42:00,19.7,14.2,30.17,NW,316,0.0,1.0,79,0.00,,,0.00,Wunderground v.1.15,2013-01-01 12:42:00,
2013-01-01 07:44:00,19.7,14.2,30.17,NW,316,1.0,1.0,79,0.00,,,0.00,Wunderground v.1.15,2013-01-01 12:44:00,
2013-01-01 07:45:00,19.7,14.2,30.17,NW,316,0.0,1.0,79,0.00,,,0.00,Wunderground v.1.15,2013-01-01 12:45:00,
2013-01-01 07:47:00,19.7,14.2,30.17,NW,316,0.0,1.0,79,0.00,,,0.00,Wunderground v.1.15,2013-01-01 12:47:00,
2013-01-01 07:49:00,19.7,14.2,30.17,NW,319,1.0,4.0,79,0.00,,,0.00,Wunderground v.1.15,2013-01-01 12:49:00,
2013-01-01 07:50:00,19.7,14.2,30.17,WNW,290,0.0,0.0,79,0.00,,,0.00,Wunderground v.1.15,2013-01-01 12:50:00,
2013-01-01 07:51:00,19.7,14.2,30.17,West,267,0.0,1.0,79,0.00,,,0.00,Wunderground v.1.15,2013-01-01 12:51:00,
2013-01-01 07:52:00,19.7,14.2,30.18,NW,307,2.0,3.0,79,0.00,,,0.00,Wunderground v.1.15,2013-01-01 12:52:00,
2013-01-01 07:54:00,19.7,14.2,30.18,North,8,3.0,3.0,79,0.00,,,0.00,Wunderground v.1.15,2013-01-01 12:54:00,
2013-01-01 07:55:00,19.7,14.2,30.18,West,264,1.0,3.0,79,0.00,,,0.00,Wunderground v.1.15,2013-01-01 12:55:00,
2013-01-01 07:56:00,19.7,14.2,30.17,NW,313,2.0,3.0,79,0.00,,,0.00,Wunderground v.1.15,2013-01-01 12:56:00,
2013-01-01 07:58:00,19.7,14.2,30.17,WNW,296,1.0,3.0,79,0.00,,,0.00,Wunderground v.1.15,2013-01-01 12:58:00,
2013-01-01 08:00:00,19.7,14.2,30.18,WNW,287,1.0,1.0,79,0.00,,,0.00,Wunderground v.1.15,2013-01-01 13:00:00,
2013-01-01 08:01:00,19.7,14.2,30.18,West,267,1.0,1.0,79,0.00,,,0.00,Wunderground v.1.15,2013-01-01 13:01:00,
2013-01-01 08:03:00,19.7,14.2,30.17,WNW,301,1.0,4.0,79,0.00,,,0.00,Wunderground v.1.15,2013-01-01 13:03:00,
2013-01-01 08:05:00,19.7,14.0,30.17,NW,320,3.0,4.0,78,0.00,,,0.00,Wunderground v.1.15,2013-01-01 13:05:00,
2013-01-01 08:06:00,19.6,13.9,30.17,NW,316,1.0,4.0,78,0.00,,,0.00,Wunderground v.1.15,2013-01-01 13:06:00,
2013-01-01 08:08:00,19.6,13.9,30.17,NW,304,1.0,4.0,78,0.00,,,0.00,Wunderground v.1.15,2013-01-01 13:08:00,
2013-01-01 08:10:00,19.6,13.9,30.17,NW,316,2.0,2.0,78,0.00,,,0.00,Wunderground v.1.15,2013-01-01 13:10:00,
2013-01-01 08:11:00,19.6,13.9,30.17,WNW,294,2.0,2.0,78,0.00,,,0.00,Wunderground v.1.15,2013-01-01 13:11:00,
2013-01-01 08:13:00,19.6,13.9,30.17,NW,310,1.0,3.0,78,0.00,,,0.00,Wunderground v.1.15,2013-01-01 13:13:00,
2013-01-01 08:16:00,19.6,14.1,30.17,NW,310,1.0,3.0,79,0.00,,,0.00,Wunderground v.1.15,2013-01-01 13:16:00,
2013-01-01 08:18:00,19.6,14.1,30.17,West,271,0.0,4.0,79,0.00,,,0.00,Wunderground v.1.15,2013-01-01 13:18:00,
2013-01-01 08:21:00,19.5,14.0,30.17,NW,319,3.0,4.0,79,0.00,,,0.00,Wunderground v.1.15,2013-01-01 13:21:00,
2013-01-01 08:23:00,19.5,13.8,30.18,WNW,288,1.0,6.0,78,0.00,,,0.00,Wunderground v.1.15,2013-01-01 13:23:00,
2013-01-01 08:26:00,19.5,13.8,30.17,WNW,288,0.0,6.0,78,0.00,,,0.00,Wunderground v.1.15,2013-01-01 13:26:00,
2013-01-01 08:29:00,19.4,13.7,30.17,NNW,339,2.0,6.0,78,0.00,,,0.00,Wunderground v.1.15,2013-01-01 13:29:00,
2013-01-01 08:31:00,19.4,13.7,30.17,NW,310,0.0,2.0,78,0.00,,,0.00,Wunderground v.1.15,2013-01-01 13:31:00,
2013-01-01 08:34:00,19.4,13.7,30.17,NW,317,0.0,2.0,78,0.00,,,0.00,Wunderground v.1.15,2013-01-01 13:34:00,
2013-01-01 08:36:00,19.4,13.7,30.17,WNW,285,2.0,5.0,78,0.00,,,0.00,Wunderground v.1.15,2013-01-01 13:36:00,
2013-01-01 08:39:00,19.3,13.6,30.17,NW,326,0.0,6.0,78,0.00,,,0.00,Wunderground v.1.15,2013-01-01 13:39:00,
2013-01-01 08:41:00,19.3,13.6,30.17,West,271,3.0,3.0,78,0.00,,,0.00,Wunderground v.1.15,2013-01-01 13:41:00,
2013-01-01 08:42:00,19.3,13.6,30.17,NW,305,3.0,3.0,78,0.00,,,0.00,Wunderground v.1.15,2013-01-01 13:42:00,
2013-01-01 08:44:00,19.3,13.6,30.18,NW,306,1.0,3.0,78,0.00,,,0.00,Wunderground v.1.15,2013-01-01 13:44:00,
2013-01-01 08:46:00,19.3,13.6,30.18,NW,315,4.0,6.0,78,0.00,,,0.00,Wunderground v.1.15,2013-01-01 13:46:00,
2013-01-01 08:47:00,19.3,13.6,30.18,West,259,2.0,6.0,78,0.00,,,0.00,Wunderground v.1.15,2013-01-01 13:47:00,
2013-01-01 08:49:00,19.3,13.6,30.18,NW,323,2.0,2.0,78,0.00,,,0.00,Wunderground v.1.15,2013-01-01 13:49:00,
2013-01-01 08:52:00,19.3,13.6,30.18,NNW,342,1.0,4.0,78,0.00,,,0.00,Wunderground v.1.15,2013-01-01 13:52:00,
2013-01-01 08:54:00,19.3,13.6,30.19,NW,310,0.0,4.0,78,0.00,,,0.00,Wunderground v.1.15,2013-01-01 13:54:00,
2013-01-01 08:57:00,19.3,13.6,30.19,NW,316,3.0,4.0,78,0.00,,,0.00,Wunderground v.1.15,2013-01-01 13:57:00,
2013-01-01 09:00:00,19.3,13.3,30.19,NW,318,5.0,5.0,77,0.00,,,0.00,Wunderground v.1.15,2013-01-01 14:00:00,
2013-01-01 09:02:00,19.3,13.3,30.19,NW,311,5.0,7.0,77,0.00,,,0.00,Wunderground v.1.15,2013-01-01 14:02:00,
2013-01-01 09:05:00,19.3,13.3,30.19,West,268,1.0,7.0,77,0.00,,,0.00,Wunderground v.1.15,2013-01-01 14:05:00,
2013-01-01 09:07:00,19.3,13.3,30.19,WNW,299,2.0,7.0,77,0.00,,,0.00,Wunderground v.1.15,2013-01-01 14:07:00,
2013-01-01 09:10:00,19.3,13.3,30.20,NW,309,3.0,4.0,77,0.00,,,0.00,Wunderground v.1.15,2013-01-01 14:10:00,
2013-01-01 09:12:00,19.3,13.3,30.20,WSW,253,1.0,4.0,77,0.00,,,0.00,Wunderground v.1.15,2013-01-01 14:12:00,
2013-01-01 09:13:00,19.3,13.3,30.20,WNW,293,3.0,4.0,77,0.00,,,0.00,Wunderground v.1.15,2013-01-01 14:13:00,
2013-01-01 09:15:00,19.3,13.0,30.20,NW,309,2.0,6.0,76,0.00,,,0.00,Wunderground v.1.15,2013-01-01 14:15:00,
2013-01-01 09:17:00,19.3,13.0,30.20,NW,306,3.0,6.0,76,0.00,,,0.00,Wunderground v.1.15,2013-01-01 14:17:00,
2013-01-01 09:18:00,19.3,13.0,30.20,WNW,300,1.0,6.0,76,0.00,,,0.00,Wunderground v.1.15,2013-01-01 14:18:00,
2013-01-01 09:21:00,19.3,13.0,30.20,West,277,2.0,4.0,76,0.00,,,0.00,Wunderground v.1.15,2013-01-01 14:21:00,
2013-01-01 09:22:00,19.3,13.0,30.21,NW,311,4.0,4.0,76,0.00,,,0.00,Wunderground v.1.15,2013-01-01 14:22:00,
2013-01-01 09:23:00,19.3,13.0,30.21,WNW,302,1.0,4.0,76,0.00,,,0.00,Wunderground v.1.15,2013-01-01 14:23:00,
2013-01-01 09:26:00,19.3,13.0,30.21,NW,308,2.0,4.0,76,0.00,,,0.00,Wunderground v.1.15,2013-01-01 14:26:00,
2013-01-01 09:28:00,19.3,12.7,30.21,NW,315,5.0,5.0,75,0.00,,,0.00,Wunderground v.1.15,2013-01-01 14:28:00,
2013-01-01 09:31:00,19.3,12.4,30.21,WNW,297,1.0,2.0,74,0.00,,,0.00,Wunderground v.1.15,2013-01-01 14:31:00,
2013-01-01 09:33:00,19.3,12.4,30.20,WNW,295,3.0,5.0,74,0.00,,,0.00,Wunderground v.1.15,2013-01-01 14:33:00,
2013-01-01 09:36:00,19.4,12.5,30.20,WSW,238,2.0,5.0,74,0.00,,,0.00,Wunderground v.1.15,2013-01-01 14:36:00,
2013-01-01 09:38:00,19.4,12.5,30.20,NW,309,2.0,5.0,74,0.00,,,0.00,Wunderground v.1.15,2013-01-01 14:38:00,
2013-01-01 09:42:00,19.4,12.2,30.20,West,276,0.0,2.0,73,0.00,,,0.00,Wunderground v.1.15,2013-01-01 14:42:00,
2013-01-01 09:43:00,19.5,12.3,30.20,WNW,300,1.0,2.0,73,0.00,,,0.00,Wunderground v.1.15,2013-01-01 14:43:00,
2013-01-01 09:44:00,19.5,12.3,30.20,West,262,1.0,2.0,73,0.00,,,0.00,Wunderground v.1.15,2013-01-01 14:44:00,
2013-01-01 09:47:00,19.6,12.0,30.20,West,259,1.0,3.0,72,0.00,,,0.00,Wunderground v.1.15,2013-01-01 14:47:00,
2013-01-01 09:48:00,19.6,12.0,30.20,West,269,1.0,3.0,72,0.00,,,0.00,Wunderground v.1.15,2013-01-01 14:48:00,
2013-01-01 09:49:00,19.6,12.0,30.20,West,281,1.0,3.0,72,0.00,,,0.00,Wunderground v.1.15,2013-01-01 14:49:00,
2013-01-01 09:52:00,19.6,11.7,30.20,WNW,297,1.0,4.0,71,0.00,,,0.00,Wunderground v.1.15,2013-01-01 14:52:00,
2013-01-01 09:53:00,19.7,11.8,30.19,West,278,1.0,4.0,71,0.00,,,0.00,Wunderground v.1.15,2013-01-01 14:53:00,
2013-01-01 09:54:00,19.7,11.8,30.19,WNW,295,4.0,4.0,71,0.00,,,0.00,Wunderground v.1.15,2013-01-01 14:54:00,
2013-01-01 09:57:00,19.7,11.5,30.19,WNW,298,3.0,5.0,70,0.00,,,0.00,Wunderground v.1.15,2013-01-01 14:57:00,
2013-01-01 09:58:00,19.7,11.2,30.19,West,266,1.0,6.0,69,0.00,,,0.00,Wunderground v.1.15,2013-01-01 14:58:00,
2013-01-01 09:59:00,19.7,11.2,30.19,West,278,2.0,6.0,69,0.00,,,0.00,Wunderground v.1.15,2013-01-01 14:59:00,
2013-01-01 10:02:00,19.7,11.5,30.19,West,269,1.0,3.0,70,0.00,,,0.00,Wunderground v.1.15,2013-01-01 15:02:00,
2013-01-01 10:03:00,19.7,11.5,30.19,West,273,1.0,3.0,70,0.00,,,0.00,Wunderground v.1.15,2013-01-01 15:03:00,
2013-01-01 10:04:00,19.8,11.6,30.19,West,280,2.0,3.0,70,0.00,,,0.00,Wunderground v.1.15,2013-01-01 15:04:00,
2013-01-01 10:05:00,19.8,11.6,30.19,NW,309,3.0,5.0,70,0.00,,,0.00,Wunderground v.1.15,2013-01-01 15:05:00,
2013-01-01 10:08:00,19.8,11.3,30.20,WNW,291,2.0,7.0,69,0.00,,,0.00,Wunderground v.1.15,2013-01-01 15:08:00,
2013-01-01 10:09:00,19.8,11.3,30.19,NNW,341,3.0,7.0,69,0.00,,,0.00,Wunderground v.1.15,2013-01-01 15:09:00,
2013-01-01 10:10:00,19.8,11.3,30.19,NW,320,2.0,3.0,69,0.00,,,0.00,Wunderground v.1.15,2013-01-01 15:10:00,
2013-01-01 10:13:00,19.9,11.4,30.19,NW,304,2.0,5.0,69,0.00,,,0.00,Wunderground v.1.15,2013-01-01 15:13:00,
2013-01-01 10:14:00,19.8,11.3,30.19,NW,309,1.0,5.0,69,0.00,,,0.00,Wunderground v.1.15,2013-01-01 15:14:00,
2013-01-01 10:15:00,19.9,11.4,30.19,WNW,300,2.0,5.0,69,0.00,,,0.00,Wunderground v.1.15,2013-01-01 15:15:00,
2013-01-01 10:19:00,19.9,11.0,30.19,NW,314,8.0,9.0,68,0.00,,,0.00,Wunderground v.1.15,2013-01-01 15:19:00,
2013-01-01 10:20:00,19.9,11.0,30.19,NW,322,2.0,3.0,68,0.00,,,0.00,Wunderground v.1.15,2013-01-01 15:20:00,
2013-01-01 10:24:00,20.0,11.1,30.19,West,280,2.0,5.0,68,0.00,,,0.00,Wunderground v.1.15,2013-01-01 15:24:00,
2013-01-01 10:25:00,20.0,11.1,30.19,West,267,1.0,5.0,68,0.00,,,0.00,Wunderground v.1.15,2013-01-01 15:25:00,
2013-01-01 10:29:00,20.1,11.2,30.19,NNE,15,3.0,6.0,68,0.00,,,0.00,Wunderground v.1.15,2013-01-01 15:29:00,
2013-01-01 10:30:00,20.0,10.8,30.19,West,276,2.0,6.0,67,0.00,,,0.00,Wunderground v.1.15,2013-01-01 15:30:00,
2013-01-01 10:34:00,20.2,11.3,30.19,NNW,330,2.0,6.0,68,0.00,,,0.00,Wunderground v.1.15,2013-01-01 15:34:00,
2013-01-01 10:35:00,20.2,11.3,30.19,West,264,1.0,6.0,68,0.00,,,0.00,Wunderground v.1.15,2013-01-01 15:35:00,
2013-01-01 10:39:00,20.3,11.4,30.19,WNW,295,1.0,6.0,68,0.00,,,0.00,Wunderground v.1.15,2013-01-01 15:39:00,
2013-01-01 10:40:00,20.4,11.5,30.19,WNW,297,1.0,3.0,68,0.00,,,0.00,Wunderground v.1.15,2013-01-01 15:40:00,
2013-01-01 10:45:00,20.4,11.2,30.19,NNW,346,3.0,6.0,67,0.00,,,0.00,Wunderground v.1.15,2013-01-01 15:45:00,
2013-01-01 10:46:00,20.4,11.2,30.19,WNW,285,1.0,6.0,67,0.00,,,0.00,Wunderground v.1.15,2013-01-01 15:46:00,
2013-01-01 10:50:00,20.3,10.7,30.20,West,281,1.0,3.0,66,0.00,,,0.00,Wunderground v.1.15,2013-01-01 15:50:00,
2013-01-01 10:51:00,20.3,10.7,30.20,WNW,285,3.0,7.0,66,0.00,,,0.00,Wunderground v.1.15,2013-01-01 15:51:00,
2013-01-01 10:55:00,20.4,10.8,30.20,WNW,293,2.0,7.0,66,0.00,,,0.00,Wunderground v.1.15,2013-01-01 15:55:00,
2013-01-01 10:56:00,20.4,10.8,30.20,North,4,4.0,7.0,66,0.00,,,0.00,Wunderground v.1.15,2013-01-01 15:56:00,
2013-01-01 11:00:00,20.5,10.9,30.20,WNW,286,1.0,2.0,66,0.00,,,0.00,Wunderground v.1.15,2013-01-01 16:00:00,
2013-01-01 11:01:00,20.6,11.4,30.19,NW,312,5.0,7.0,67,0.00,,,0.00,Wunderground v.1.15,2013-01-01 16:01:00,
2013-01-01 11:05:00,20.7,11.5,30.19,NW,325,1.0,7.0,67,0.00,,,0.00,Wunderground v.1.15,2013-01-01 16:05:00,
2013-01-01 11:06:00,20.7,11.5,30.19,ENE,62,0.0,7.0,67,0.00,,,0.00,Wunderground v.1.15,2013-01-01 16:06:00,
2013-01-01 11:07:00,20.8,11.6,30.19,NW,316,1.0,7.0,67,0.00,,,0.00,Wunderground v.1.15,2013-01-01 16:07:00,
2013-01-01 11:10:00,20.9,11.3,30.18,NNE,15,4.0,5.0,66,0.00,,,0.00,Wunderground v.1.15,2013-01-01 16:10:00,
2013-01-01 11:11:00,20.9,11.3,30.18,NE,36,3.0,5.0,66,0.00,,,0.00,Wunderground v.1.15,2013-01-01 16:11:00,
2013-01-01 11:15:00,20.7,10.4,30.18,North,355,5.0,7.0,64,0.00,,,0.00,Wunderground v.1.15,2013-01-01 16:15:00,
2013-01-01 11:16:00,20.7,10.4,30.18,North,11,2.0,7.0,64,0.00,,,0.00,Wunderground v.1.15,2013-01-01 16:16:00,
2013-01-01 11:17:00,20.7,10.4,30.18,NE,43,2.0,7.0,64,0.00,,,0.00,Wunderground v.1.15,2013-01-01 16:17:00,
2013-01-01 11:20:00,20.6,10.3,30.17,NW,314,2.0,4.0,64,0.00,,,0.00,Wunderground v.1.15,2013-01-01 16:20:00,
2013-01-01 11:21:00,20.6,10.3,30.18,WSW,258,2.0,4.0,64,0.00,,,0.00,Wunderground v.1.15,2013-01-01 16:21:00,
2013-01-01 11:25:00,20.7,10.8,30.17,NNW,339,1.0,7.0,65,0.00,,,0.00,Wunderground v.1.15,2013-01-01 16:25:00,
2013-01-01 11:26:00,20.8,10.9,30.17,West,266,3.0,7.0,65,0.00,,,0.00,Wunderground v.1.15,2013-01-01 16:26:00,
2013-01-01 11:27:00,20.8,10.9,30.17,NW,323,2.0,7.0,65,0.00,,,0.00,Wunderground v.1.15,2013-01-01 16:27:00,
2013-01-01 11:31:00,20.9,10.6,30.17,West,281,1.0,9.0,64,0.00,,,0.00,Wunderground v.1.15,2013-01-01 16:31:00,
2013-01-01 11:32:00,20.8,10.5,30.17,NNE,30,7.0,12.0,64,0.00,,,0.00,Wunderground v.1.15,2013-01-01 16:32:00,
2013-01-01 11:36:00,20.8,10.2,30.17,WNW,283,2.0,12.0,63,0.00,,,0.00,Wunderground v.1.15,2013-01-01 16:36:00,
2013-01-01 11:37:00,20.8,10.5,30.17,NW,312,1.0,12.0,64,0.00,,,0.00,Wunderground v.1.15,2013-01-01 16:37:00,
2013-01-01 11:38:00,20.8,10.5,30.17,West,265,1.0,12.0,64,0.00,,,0.00,Wunderground v.1.15,2013-01-01 16:38:00,
2013-01-01 11:41:00,20.9,10.3,30.16,WNW,295,2.0,7.0,63,0.00,,,0.00,Wunderground v.1.15,2013-01-01 16:41:00,
2013-01-01 11:42:00,20.9,10.6,30.16,NW,304,9.0,10.0,64,0.00,,,0.00,Wunderground v.1.15,2013-01-01 16:42:00,
2013-01-01 11:43:00,20.9,10.3,30.16,WNW,301,5.0,10.0,63,0.00,,,0.00,Wunderground v.1.15,2013-01-01 16:43:00,
2013-01-01 11:46:00,20.9,10.3,30.16,North,4,5.0,10.0,63,0.00,,,0.00,Wunderground v.1.15,2013-01-01 16:46:00,
2013-01-01 11:47:00,20.9,10.3,30.16,WNW,297,1.0,10.0,63,0.00,,,0.00,Wunderground v.1.15,2013-01-01 16:47:00,
2013-01-01 11:48:00,20.9,10.3,30.16,NW,311,4.0,10.0,63,0.00,,,0.00,Wunderground v.1.15,2013-01-01 16:48:00,
2013-01-01 11:51:00,21.2,10.9,30.15,North,353,3.0,9.0,64,0.00,,,0.00,Wunderground v.1.15,2013-01-01 16:51:00,
2013-01-01 11:52:00,21.4,11.1,30.15,NW,316,6.0,9.0,64,0.00,,,0.00,Wunderground v.1.15,2013-01-01 16:52:00,
2013-01-01 11:53:00,21.4,11.1,30.15,NW,308,6.0,9.0,64,0.00,,,0.00,Wunderground v.1.15,2013-01-01 16:53:00,
2013-01-01 11:56:00,21.5,10.8,30.15,West,274,2.0,10.0,63,0.00,,,0.00,Wunderground v.1.15,2013-01-01 16:56:00,
2013-01-01 11:57:00,21.5,10.8,30.15,NNW,334,2.0,10.0,63,0.00,,,0.00,Wunderground v.1.15,2013-01-01 16:57:00,
2013-01-01 11:58:00,21.6,10.9,30.15,NNE,30,2.0,10.0,63,0.00,,,0.00,Wunderground v.1.15,2013-01-01 16:58:00,
2013-01-01 12:02:00,21.8,11.1,30.14,NNW,343,2.0,4.0,63,0.00,,,0.00,Wunderground v.1.15,2013-01-01 17:02:00,
2013-01-01 12:03:00,21.9,11.2,30.14,WNW,297,0.0,4.0,63,0.00,,,0.00,Wunderground v.1.15,2013-01-01 17:03:00,
2013-01-01 12:07:00,21.8,10.8,30.14,WNW,302,3.0,8.0,62,0.00,,,0.00,Wunderground v.1.15,2013-01-01 17:07:00,
2013-01-01 12:08:00,21.6,10.2,30.14,NNW,329,2.0,13.0,61,0.00,,,0.00,Wunderground v.1.15,2013-01-01 17:08:00,
2013-01-01 12:12:00,21.6,10.9,30.14,North,8,2.0,4.0,63,0.00,,,0.00,Wunderground v.1.15,2013-01-01 17:12:00,
2013-01-01 12:13:00,21.7,11.0,30.14,NW,316,2.0,7.0,63,0.00,,,0.00,Wunderground v.1.15,2013-01-01 17:13:00,
2013-01-01 12:17:00,22.1,11.1,30.13,WNW,298,6.0,8.0,62,0.00,,,0.00,Wunderground v.1.15,2013-01-01 17:17:00,
2013-01-01 12:18:00,22.1,10.7,30.13,NNW,330,1.0,8.0,61,0.00,,,0.00,Wunderground v.1.15,2013-01-01 17:18:00,
2013-01-01 12:22:00,21.7,10.7,30.13,NW,310,1.0,6.0,62,0.00,,,0.00,Wunderground v.1.15,2013-01-01 17:22:00,
2013-01-01 12:23:00,21.7,10.7,30.13,NNE,31,5.0,7.0,62,0.00,,,0.00,Wunderground v.1.15,2013-01-01 17:23:00,
2013-01-01 12:24:00,21.6,10.6,30.13,WNW,294,2.0,7.0,62,0.00,,,0.00,Wunderground v.1.15,2013-01-01 17:24:00,
2013-01-01 12:27:00,21.9,11.2,30.13,NNE,24,2.0,8.0,63,0.00,,,0.00,Wunderground v.1.15,2013-01-01 17:27:00,
2013-01-01 12:28:00,22.0,11.3,30.13,SW,226,1.0,8.0,63,0.00,,,0.00,Wunderground v.1.15,2013-01-01 17:28:00,
2013-01-01 12:29:00,22.1,11.4,30.13,NW,306,2.0,8.0,63,0.00,,,0.00,Wunderground v.1.15,2013-01-01 17:29:00,
2013-01-01 12:32:00,22.4,11.0,30.13,NNW,342,1.0,9.0,61,0.00,,,0.00,Wunderground v.1.15,2013-01-01 17:32:00,
2013-01-01 12:33:00,22.3,10.9,30.13,NNE,30,2.0,9.0,61,0.00,,,0.00,Wunderground v.1.15,2013-01-01 17:33:00,
2013-01-01 12:34:00,22.4,11.0,30.14,West,275,1.0,9.0,61,0.00,,,0.00,Wunderground v.1.15,2013-01-01 17:34:00,
2013-01-01 12:38:00,22.5,11.1,30.14,WNW,302,1.0,9.0,61,0.00,,,0.00,Wunderground v.1.15,2013-01-01 17:38:00,
2013-01-01 12:39:00,22.6,11.2,30.14,SSE,158,0.0,9.0,61,0.00,,,0.00,Wunderground v.1.15,2013-01-01 17:39:00,
2013-01-01 12:43:00,23.1,11.6,30.14,West,277,2.0,5.0,61,0.00,,,0.00,Wunderground v.1.15,2013-01-01 17:43:00,
2013-01-01 12:44:00,22.9,11.1,30.14,NNE,24,6.0,8.0,60,0.00,,,0.00,Wunderground v.1.15,2013-01-01 17:44:00,
2013-01-01 12:45:00,22.8,10.6,30.14,NW,323,2.0,8.0,59,0.00,,,0.00,Wunderground v.1.15,2013-01-01 17:45:00,
2013-01-01 12:48:00,22.3,10.5,30.14,NW,324,3.0,8.0,60,0.00,,,0.00,Wunderground v.1.15,2013-01-01 17:48:00,
2013-01-01 12:49:00,22.3,10.5,30.14,NW,322,2.0,8.0,60,0.00,,,0.00,Wunderground v.1.15,2013-01-01 17:49:00,
2013-01-01 12:50:00,22.3,10.5,30.14,NNW,333,5.0,5.0,60,0.00,,,0.00,Wunderground v.1.15,2013-01-01 17:50:00,
2013-01-01 12:54:00,22.3,10.5,30.14,NNE,12,4.0,6.0,60,0.00,,,0.00,Wunderground v.1.15,2013-01-01 17:54:00,
2013-01-01 12:55:00,22.4,11.0,30.14,NNW,343,5.0,6.0,61,0.00,,,0.00,Wunderground v.1.15,2013-01-01 17:55:00,
2013-01-01 12:59:00,22.4,10.6,30.14,NNE,19,6.0,6.0,60,0.00,,,0.00,Wunderground v.1.15,2013-01-01 17:59:00,
2013-01-01 13:00:00,22.3,10.5,30.14,NW,309,1.0,3.0,60,0.00,,,0.00,Wunderground v.1.15,2013-01-01 18:00:00,
2013-01-01 13:04:00,21.9,10.1,30.14,East,93,2.0,6.0,60,0.00,,,0.00,Wunderground v.1.15,2013-01-01 18:04:00,
2013-01-01 13:05:00,21.9,10.1,30.14,East,96,2.0,6.0,60,0.00,,,0.00,Wunderground v.1.15,2013-01-01 18:05:00,
2013-01-01 13:09:00,22.0,10.6,30.14,WSW,257,1.0,6.0,61,0.00,,,0.00,Wunderground v.1.15,2013-01-01 18:09:00,
2013-01-01 13:10:00,22.0,11.0,30.14,West,280,2.0,2.0,62,0.00,,,0.00,Wunderground v.1.15,2013-01-01 18:10:00,
2013-01-01 13:11:00,22.1,11.1,30.14,NW,307,2.0,2.0,62,0.00,,,0.00,Wunderground v.1.15,2013-01-01 18:11:00,
2013-01-01 13:14:00,22.4,10.6,30.13,WNW,282,1.0,5.0,60,0.00,,,0.00,Wunderground v.1.15,2013-01-01 18:14:00,
2013-01-01 13:15:00,22.4,10.6,30.13,WNW,302,1.0,5.0,60,0.00,,,0.00,Wunderground v.1.15,2013-01-01 18:15:00,
2013-01-01 13:16:00,22.5,11.1,30.13,NW,316,5.0,5.0,61,0.00,,,0.00,Wunderground v.1.15,2013-01-01 18:16:00,
2013-01-01 13:19:00,22.7,10.9,30.13,West,278,2.0,5.0,60,0.00,,,0.00,Wunderground v.1.15,2013-01-01 18:19:00,
2013-01-01 13:20:00,22.7,10.5,30.13,West,273,2.0,4.0,59,0.00,,,0.00,Wunderground v.1.15,2013-01-01 18:20:00,
2013-01-01 13:21:00,22.7,10.5,30.13,NW,304,3.0,4.0,59,0.00,,,0.00,Wunderground v.1.15,2013-01-01 18:21:00,
2013-01-01 13:24:00,22.7,10.5,30.13,West,267,3.0,5.0,59,0.00,,,0.00,Wunderground v.1.15,2013-01-01 18:24:00,
2013-01-01 13:25:00,22.7,10.5,30.13,West,277,4.0,5.0,59,0.00,,,0.00,Wunderground v.1.15,2013-01-01 18:25:00,
2013-01-01 13:26:00,22.7,10.5,30.13,WNW,293,2.0,5.0,59,0.00,,,0.00,Wunderground v.1.15,2013-01-01 18:26:00,
2013-01-01 13:29:00,22.6,10.4,30.13,WNW,300,2.0,7.0,59,0.00,,,0.00,Wunderground v.1.15,2013-01-01 18:29:00,
2013-01-01 13:30:00,22.5,9.9,30.13,WNW,295,2.0,4.0,58,0.00,,,0.00,Wunderground v.1.15,2013-01-01 18:30:00,
2013-01-01 13:31:00,22.4,10.2,30.13,NW,307,2.0,7.0,59,0.00,,,0.00,Wunderground v.1.15,2013-01-01 18:31:00,
2013-01-01 13:34:00,22.3,10.1,30.13,NW,312,3.0,7.0,59,0.00,,,0.00,Wunderground v.1.15,2013-01-01 18:34:00,
2013-01-01 13:35:00,22.3,10.1,30.13,WNW,293,6.0,7.0,59,0.00,,,0.00,Wunderground v.1.15,2013-01-01 18:35:00,
2013-01-01 13:36:00,22.3,10.1,30.13,WNW,297,3.0,7.0,59,0.00,,,0.00,Wunderground v.1.15,2013-01-01 18:36:00,
2013-01-01 13:40:00,22.4,10.6,30.13,West,262,3.0,3.0,60,0.00,,,0.00,Wunderground v.1.15,2013-01-01 18:40:00,
2013-01-01 13:41:00,22.4,10.6,30.13,West,271,3.0,4.0,60,0.00,,,0.00,Wunderground v.1.15,2013-01-01 18:41:00,
2013-01-01 13:45:00,22.1,9.9,30.13,NNW,331,2.0,7.0,59,0.00,,,0.00,Wunderground v.1.15,2013-01-01 18:45:00,
2013-01-01 13:46:00,22.0,10.2,30.13,West,259,1.0,7.0,60,0.00,,,0.00,Wunderground v.1.15,2013-01-01 18:46:00,
2013-01-01 13:47:00,22.0,10.2,30.13,WSW,256,2.0,7.0,60,0.00,,,0.00,Wunderground v.1.15,2013-01-01 18:47:00,
2013-01-01 13:50:00,22.2,10.4,30.14,West,264,2.0,2.0,60,0.00,,,0.00,Wunderground v.1.15,2013-01-01 18:50:00,
2013-01-01 13:51:00,22.3,10.5,30.14,West,266,2.0,3.0,60,0.00,,,0.00,Wunderground v.1.15,2013-01-01 18:51:00,
2013-01-01 13:52:00,22.4,10.6,30.14,West,260,3.0,3.0,60,0.00,,,0.00,Wunderground v.1.15,2013-01-01 18:52:00,
2013-01-01 13:55:00,22.8,11.0,30.14,West,259,4.0,6.0,60,0.00,,,0.00,Wunderground v.1.15,2013-01-01 18:55:00,
2013-01-01 13:56:00,22.8,10.6,30.14,WSW,246,2.0,6.0,59,0.00,,,0.00,Wunderground v.1.15,2013-01-01 18:56:00,
2013-01-01 13:57:00,22.8,10.6,30.14,West,267,2.0,6.0,59,0.00,,,0.00,Wunderground v.1.15,2013-01-01 18:57:00,
2013-01-01 14:01:00,23.0,10.8,30.14,WSW,257,3.0,3.0,59,0.00,,,0.00,Wunderground v.1.15,2013-01-01 19:01:00,
2013-01-01 14:02:00,23.0,10.8,30.14,West,271,3.0,3.0,59,0.00,,,0.00,Wunderground v.1.15,2013-01-01 19:02:00,
2013-01-01 14:06:00,23.3,10.7,30.13,West,269,2.0,4.0,58,0.00,,,0.00,Wunderground v.1.15,2013-01-01 19:06:00,
2013-01-01 14:07:00,23.4,10.4,30.14,West,270,1.0,4.0,57,0.00,,,0.00,Wunderground v.1.15,2013-01-01 19:07:00,
2013-01-01 14:08:00,23.4,10.8,30.14,West,274,3.0,4.0,58,0.00,,,0.00,Wunderground v.1.15,2013-01-01 19:08:00,
2013-01-01 14:11:00,23.8,11.2,30.14,WSW,248,3.0,5.0,58,0.00,,,0.00,Wunderground v.1.15,2013-01-01 19:11:00,
2013-01-01 14:12:00,23.9,11.3,30.14,WNW,293,2.0,5.0,58,0.00,,,0.00,Wunderground v.1.15,2013-01-01 19:12:00,
2013-01-01 14:13:00,23.9,11.3,30.14,NW,315,2.0,5.0,58,0.00,,,0.00,Wunderground v.1.15,2013-01-01 19:13:00,
2013-01-01 14:16:00,24.2,11.1,30.13,WNW,285,2.0,6.0,57,0.00,,,0.00,Wunderground v.1.15,2013-01-01 19:16:00,
2013-01-01 14:17:00,24.2,11.1,30.13,NW,307,3.0,6.0,57,0.00,,,0.00,Wunderground v.1.15,2013-01-01 19:17:00,
2013-01-01 14:18:00,24.2,11.1,30.13,NW,314,2.0,6.0,57,0.00,,,0.00,Wunderground v.1.15,2013-01-01 19:18:00,
2013-01-01 14:21:00,24.3,11.2,30.14,NW,319,3.0,4.0,57,0.00,,,0.00,Wunderground v.1.15,2013-01-01 19:21:00,
2013-01-01 14:22:00,24.2,10.7,30.14,West,281,2.0,4.0,56,0.00,,,0.00,Wunderground v.1.15,2013-01-01 19:22:00,
2013-01-01 14:23:00,24.2,10.7,30.14,West,274,2.0,4.0,56,0.00,,,0.00,Wunderground v.1.15,2013-01-01 19:23:00,
2013-01-01 14:26:00,24.2,10.7,30.13,SW,232,3.0,4.0,56,0.00,,,0.00,Wunderground v.1.15,2013-01-01 19:26:00,
2013-01-01 14:27:00,24.2,11.1,30.13,WSW,256,4.0,4.0,57,0.00,,,0.00,Wunderground v.1.15,2013-01-01 19:27:00,
2013-01-01 14:28:00,24.2,11.1,30.13,West,259,3.0,4.0,57,0.00,,,0.00,Wunderground v.1.15,2013-01-01 19:28:00,
2013-01-01 14:32:00,24.0,11.0,30.13,West,280,0.0,3.0,57,0.00,,,0.00,Wunderground v.1.15,2013-01-01 19:32:00,
2013-01-01 14:33:00,24.2,11.1,30.14,West,271,3.0,3.0,57,0.00,,,0.00,Wunderground v.1.15,2013-01-01 19:33:00,
2013-01-01 14:37:00,23.9,10.9,30.14,West,277,3.0,5.0,57,0.00,,,0.00,Wunderground v.1.15,2013-01-01 19:37:00,
2013-01-01 14:38:00,23.7,10.7,30.14,West,264,3.0,5.0,57,0.00,,,0.00,Wunderground v.1.15,2013-01-01 19:38:00,
2013-01-01 14:39:00,23.7,10.7,30.14,WSW,240,4.0,5.0,57,0.00,,,0.00,Wunderground v.1.15,2013-01-01 19:39:00,
2013-01-01 14:42:00,23.4,10.8,30.14,West,263,2.0,3.0,58,0.00,,,0.00,Wunderground v.1.15,2013-01-01 19:42:00,
2013-01-01 14:43:00,23.5,11.3,30.13,WSW,239,5.0,5.0,59,0.00,,,0.00,Wunderground v.1.15,2013-01-01 19:43:00,
2013-01-01 14:44:00,23.4,10.8,30.13,WSW,246,5.0,5.0,58,0.00,,,0.00,Wunderground v.1.15,2013-01-01 19:44:00,
2013-01-01 14:47:00,23.5,10.9,30.14,WSW,252,4.0,6.0,58,0.00,,,0.00,Wunderground v.1.15,2013-01-01 19:47:00,
2013-01-01 14:48:00,23.6,11.4,30.14,West,269,3.0,6.0,59,0.00,,,0.00,Wunderground v.1.15,2013-01-01 19:48:00,
2013-01-01 14:49:00,23.5,10.9,30.14,SW,225,4.0,6.0,58,0.00,,,0.00,Wunderground v.1.15,2013-01-01 19:49:00,
2013-01-01 14:52:00,23.4,10.8,30.14,West,260,3.0,5.0,58,0.00,,,0.00,Wunderground v.1.15,2013-01-01 19:52:00,
2013-01-01 14:53:00,23.3,10.7,30.14,West,276,2.0,5.0,58,0.00,,,0.00,Wunderground v.1.15,2013-01-01 19:53:00,
2013-01-01 14:54:00,23.2,10.6,30.14,WSW,245,6.0,7.0,58,0.00,,,0.00,Wunderground v.1.15,2013-01-01 19:54:00,
2013-01-01 14:57:00,23.2,11.4,30.14,SW,229,1.0,8.0,60,0.00,,,0.00,Wunderground v.1.15,2013-01-01 19:57:00,
2013-01-01 14:59:00,23.4,11.5,30.14,West,260,2.0,8.0,60,0.00,,,0.00,Wunderground v.1.15,2013-01-01 19:59:00,
2013-01-01 15:02:00,23.3,11.1,30.14,WNW,288,3.0,5.0,59,0.00,,,0.00,Wunderground v.1.15,2013-01-01 20:02:00,
2013-01-01 15:04:00,23.3,11.4,30.14,WNW,294,2.0,5.0,60,0.00,,,0.00,Wunderground v.1.15,2013-01-01 20:04:00,
2013-01-01 15:07:00,23.1,10.5,30.15,West,273,5.0,5.0,58,0.00,,,0.00,Wunderground v.1.15,2013-01-01 20:07:00,
2013-01-01 15:09:00,23.0,10.8,30.15,WSW,256,5.0,6.0,59,0.00,,,0.00,Wunderground v.1.15,2013-01-01 20:09:00,
2013-01-01 15:12:00,22.8,10.6,30.15,NW,311,2.0,4.0,59,0.00,,,0.00,Wunderground v.1.15,2013-01-01 20:12:00,
2013-01-01 15:14:00,22.7,10.9,30.15,NW,311,3.0,4.0,60,0.00,,,0.00,Wunderground v.1.15,2013-01-01 20:14:00,
2013-01-01 15:15:00,22.7,10.9,30.15,WSW,245,4.0,4.0,60,0.00,,,0.00,Wunderground v.1.15,2013-01-01 20:15:00,
2013-01-01 15:17:00,22.7,11.3,30.14,NW,305,3.0,5.0,61,0.00,,,0.00,Wunderground v.1.15,2013-01-01 20:17:00,
2013-01-01 15:19:00,22.6,10.8,30.14,West,274,2.0,7.0,60,0.00,,,0.00,Wunderground v.1.15,2013-01-01 20:19:00,
2013-01-01 15:20:00,22.6,10.8,30.14,West,276,2.0,3.0,60,0.00,,,0.00,Wunderground v.1.15,2013-01-01 20:20:00,
2013-01-01 15:22:00,22.4,10.6,30.14,West,278,3.0,8.0,60,0.00,,,0.00,Wunderground v.1.15,2013-01-01 20:22:00,
2013-01-01 15:24:00,22.3,10.5,30.15,West,270,3.0,8.0,60,0.00,,,0.00,Wunderground v.1.15,2013-01-01 20:24:00,
2013-01-01 15:25:00,22.1,10.3,30.15,West,270,2.0,8.0,60,0.00,,,0.00,Wunderground v.1.15,2013-01-01 20:25:00,
2013-01-01 15:27:00,22.0,10.6,30.15,West,273,3.0,8.0,61,0.00,,,0.00,Wunderground v.1.15,2013-01-01 20:27:00,
2013-01-01 15:29:00,22.0,10.6,30.15,NNW,340,4.0,8.0,61,0.00,,,0.00,Wunderground v.1.15,2013-01-01 20:29:00,
2013-01-01 15:31:00,21.9,10.9,30.15,West,264,3.0,5.0,62,0.00,,,0.00,Wunderground v.1.15,2013-01-01 20:31:00,
2013-01-01 15:32:00,21.8,10.8,30.15,WNW,288,3.0,5.0,62,0.00,,,0.00,Wunderground v.1.15,2013-01-01 20:32:00,
2013-01-01 15:34:00,21.7,10.7,30.15,NNW,334,6.0,6.0,62,0.00,,,0.00,Wunderground v.1.15,2013-01-01 20:34:00,
2013-01-01 15:35:00,21.7,10.7,30.15,West,279,3.0,6.0,62,0.00,,,0.00,Wunderground v.1.15,2013-01-01 20:35:00,
2013-01-01 15:36:00,21.7,10.7,30.15,WSW,243,2.0,6.0,62,0.00,,,0.00,Wunderground v.1.15,2013-01-01 20:36:00,
2013-01-01 15:37:00,21.6,10.9,30.15,NW,312,2.0,6.0,63,0.00,,,0.00,Wunderground v.1.15,2013-01-01 20:37:00,
2013-01-01 15:39:00,21.6,10.9,30.15,WNW,302,3.0,6.0,63,0.00,,,0.00,Wunderground v.1.15,2013-01-01 20:39:00,
2013-01-01 15:40:00,21.6,10.9,30.15,NW,314,5.0,5.0,63,0.00,,,0.00,Wunderground v.1.15,2013-01-01 20:40:00,
2013-01-01 15:41:00,21.5,10.5,30.15,West,280,2.0,5.0,62,0.00,,,0.00,Wunderground v.1.15,2013-01-01 20:41:00,
2013-01-01 15:43:00,21.5,10.5,30.15,West,271,2.0,6.0,62,0.00,,,0.00,Wunderground v.1.15,2013-01-01 20:43:00,
2013-01-01 15:44:00,21.4,10.7,30.15,West,277,2.0,6.0,63,0.00,,,0.00,Wunderground v.1.15,2013-01-01 20:44:00,
2013-01-01 15:45:00,21.3,10.7,30.15,WSW,255,2.0,6.0,63,0.00,,,0.00,Wunderground v.1.15,2013-01-01 20:45:00,
2013-01-01 15:46:00,21.3,10.7,30.15,West,265,3.0,6.0,63,0.00,,,0.00,Wunderground v.1.15,2013-01-01 20:46:00,
2013-01-01 15:48:00,21.2,10.6,30.15,WNW,285,1.0,7.0,63,0.00,,,0.00,Wunderground v.1.15,2013-01-01 20:48:00,
2013-01-01 15:49:00,21.1,10.5,30.15,West,272,3.0,7.0,63,0.00,,,0.00,Wunderground v.1.15,2013-01-01 20:49:00,
2013-01-01 15:50:00,21.1,10.5,30.15,West,278,4.0,6.0,63,0.00,,,0.00,Wunderground v.1.15,2013-01-01 20:50:00,
2013-01-01 15:51:00,21.1,10.5,30.15,West,273,3.0,6.0,63,0.00,,,0.00,Wunderground v.1.15,2013-01-01 20:51:00,
2013-01-01 15:53:00,20.9,10.3,30.16,West,279,2.0,6.0,63,0.00,,,0.00,Wunderground v.1.15,2013-01-01 20:53:00,
2013-01-01 15:54:00,20.9,10.3,30.16,West,277,3.0,6.0,63,0.00,,,0.00,Wunderground v.1.15,2013-01-01 20:54:00,
2013-01-01 15:56:00,20.8,10.2,30.16,NW,316,4.0,6.0,63,0.00,,,0.00,Wunderground v.1.15,2013-01-01 20:56:00,
2013-01-01 15:58:00,20.7,10.4,30.16,NW,313,2.0,6.0,64,0.00,,,0.00,Wunderground v.1.15,2013-01-01 20:58:00,
2013-01-01 15:59:00,20.6,10.3,30.15,NNW,338,1.0,3.0,64,0.00,,,0.00,Wunderground v.1.15,2013-01-01 20:59:00,
2013-01-01 16:01:00,20.6,10.3,30.15,NW,318,3.0,5.0,64,0.00,,,0.00,Wunderground v.1.15,2013-01-01 21:01:00,
2013-01-01 16:04:00,20.5,10.2,30.15,NW,310,2.0,5.0,64,0.00,,,0.00,Wunderground v.1.15,2013-01-01 21:04:00,
2013-01-01 16:05:00,20.4,10.1,30.15,NW,319,4.0,5.0,64,0.00,,,0.00,Wunderground v.1.15,2013-01-01 21:05:00,
2013-01-01 16:06:00,20.4,10.1,30.15,NW,319,2.0,5.0,64,0.00,,,0.00,Wunderground v.1.15,2013-01-01 21:06:00,
2013-01-01 16:09:00,20.3,10.1,30.15,West,269,1.0,6.0,64,0.00,,,0.00,Wunderground v.1.15,2013-01-01 21:09:00,
2013-01-01 16:10:00,20.3,10.1,30.15,NW,305,1.0,2.0,64,0.00,,,0.00,Wunderground v.1.15,2013-01-01 21:10:00,
2013-01-01 16:11:00,20.3,10.1,30.16,WSW,256,1.0,5.0,64,0.00,,,0.00,Wunderground v.1.15,2013-01-01 21:11:00,
2013-01-01 16:12:00,20.3,10.1,30.16,West,266,0.0,5.0,64,0.00,,,0.00,Wunderground v.1.15,2013-01-01 21:12:00,
2013-01-01 16:14:00,20.3,10.1,30.16,WNW,290,1.0,5.0,64,0.00,,,0.00,Wunderground v.1.15,2013-01-01 21:14:00,
2013-01-01 16:15:00,20.3,10.1,30.16,NW,306,1.0,5.0,64,0.00,,,0.00,Wunderground v.1.15,2013-01-01 21:15:00,
2013-01-01 16:16:00,20.3,10.4,30.16,WSW,256,1.0,5.0,65,0.00,,,0.00,Wunderground v.1.15,2013-01-01 21:16:00,
2013-01-01 16:17:00,20.3,10.4,30.16,WSW,246,2.0,5.0,65,0.00,,,0.00,Wunderground v.1.15,2013-01-01 21:17:00,
2013-01-01 16:19:00,20.4,10.5,30.16,West,274,3.0,5.0,65,0.00,,,0.00,Wunderground v.1.15,2013-01-01 21:19:00,
2013-01-01 16:20:00,20.4,10.1,30.16,West,268,2.0,2.0,64,0.00,,,0.00,Wunderground v.1.15,2013-01-01 21:20:00,
2013-01-01 16:21:00,20.5,10.2,30.16,West,276,3.0,3.0,64,0.00,,,0.00,Wunderground v.1.15,2013-01-01 21:21:00,
2013-01-01 16:22:00,20.5,10.2,30.16,West,259,4.0,4.0,64,0.00,,,0.00,Wunderground v.1.15,2013-01-01 21:22:00,
2013-01-01 16:24:00,20.5,10.2,30.16,West,268,2.0,4.0,64,0.00,,,0.00,Wunderground v.1.15,2013-01-01 21:24:00,
2013-01-01 16:25:00,20.5,10.2,30.16,West,271,2.0,4.0,64,0.00,,,0.00,Wunderground v.1.15,2013-01-01 21:25:00,
2013-01-01 16:27:00,20.5,10.6,30.16,West,277,2.0,4.0,65,0.00,,,0.00,Wunderground v.1.15,2013-01-01 21:27:00,
2013-01-01 16:29:00,20.5,10.2,30.16,NW,305,0.0,4.0,64,0.00,,,0.00,Wunderground v.1.15,2013-01-01 21:29:00,
2013-01-01 16:30:00,20.6,10.7,30.16,WNW,282,1.0,2.0,65,0.00,,,0.00,Wunderground v.1.15,2013-01-01 21:30:00,
2013-01-01 16:32:00,20.6,10.3,30.16,WNW,290,1.0,2.0,64,0.00,,,0.00,Wunderground v.1.15,2013-01-01 21:32:00,
2013-01-01 16:34:00,20.5,10.2,30.16,WNW,283,1.0,5.0,64,0.00,,,0.00,Wunderground v.1.15,2013-01-01 21:34:00,
2013-01-01 16:35:00,20.5,10.6,30.16,West,270,1.0,5.0,65,0.00,,,0.00,Wunderground v.1.15,2013-01-01 21:35:00,
2013-01-01 16:37:00,20.4,10.5,30.16,WNW,293,0.0,5.0,65,0.00,,,0.00,Wunderground v.1.15,2013-01-01 21:37:00,
2013-01-01 16:39:00,20.4,10.5,30.16,West,271,1.0,5.0,65,0.00,,,0.00,Wunderground v.1.15,2013-01-01 21:39:00,
2013-01-01 16:40:00,20.4,10.5,30.16,NW,314,3.0,3.0,65,0.00,,,0.00,Wunderground v.1.15,2013-01-01 21:40:00,
2013-01-01 16:42:00,20.4,10.1,30.16,NW,315,2.0,3.0,64,0.00,,,0.00,Wunderground v.1.15,2013-01-01 21:42:00,
2013-01-01 16:44:00,20.4,10.1,30.16,WNW,285,1.0,6.0,64,0.00,,,0.00,Wunderground v.1.15,2013-01-01 21:44:00,
2013-01-01 16:46:00,20.4,10.1,30.16,West,266,1.0,6.0,64,0.00,,,0.00,Wunderground v.1.15,2013-01-01 21:46:00,
2013-01-01 16:47:00,20.4,10.1,30.16,WNW,290,1.0,6.0,64,0.00,,,0.00,Wunderground v.1.15,2013-01-01 21:47:00,
2013-01-01 16:49:00,20.5,10.2,30.16,West,270,2.0,2.0,64,0.00,,,0.00,Wunderground v.1.15,2013-01-01 21:49:00,
2013-01-01 16:51:00,20.5,10.2,30.16,WNW,283,1.0,2.0,64,0.00,,,0.00,Wunderground v.1.15,2013-01-01 21:51:00,
2013-01-01 16:52:00,20.5,10.2,30.16,NW,319,0.0,3.0,64,0.00,,,0.00,Wunderground v.1.15,2013-01-01 21:52:00,
2013-01-01 16:53:00,20.6,10.3,30.16,West,271,1.0,3.0,64,0.00,,,0.00,Wunderground v.1.15,2013-01-01 21:53:00,
2013-01-01 16:54:00,20.6,10.3,30.16,WNW,296,1.0,3.0,64,0.00,,,0.00,Wunderground v.1.15,2013-01-01 21:54:00,
2013-01-01 16:56:00,20.6,10.3,30.16,West,275,1.0,3.0,64,0.00,,,0.00,Wunderground v.1.15,2013-01-01 21:56:00,
2013-01-01 16:57:00,20.6,10.3,30.16,WNW,288,1.0,3.0,64,0.00,,,0.00,Wunderground v.1.15,2013-01-01 21:57:00,
2013-01-01 16:58:00,20.6,10.3,30.16,WNW,301,1.0,3.0,64,0.00,,,0.00,Wunderground v.1.15,2013-01-01 21:58:00,
2013-01-01 17:00:00,20.6,10.3,30.16,NW,320,2.0,2.0,64,0.00,,,0.00,Wunderground v.1.15,2013-01-01 22:00:00,
2013-01-01 17:01:00,20.5,10.2,30.16,WSW,256,1.0,2.0,64,0.00,,,0.00,Wunderground v.1.15,2013-01-01 22:01:00,
2013-01-01 17:03:00,20.4,10.1,30.16,NW,305,2.0,2.0,64,0.00,,,0.00,Wunderground v.1.15,2013-01-01 22:03:00,
2013-01-01 17:04:00,20.4,10.1,30.16,NW,304,1.0,2.0,64,0.00,,,0.00,Wunderground v.1.15,2013-01-01 22:04:00,
2013-01-01 17:05:00,20.3,10.1,30.16,WNW,285,2.0,2.0,64,0.00,,,0.00,Wunderground v.1.15,2013-01-01 22:05:00,
2013-01-01 17:06:00,20.2,10.0,30.16,West,267,1.0,2.0,64,0.00,,,0.00,Wunderground v.1.15,2013-01-01 22:06:00,
2013-01-01 17:08:00,20.1,9.9,30.15,West,271,1.0,2.0,64,0.00,,,0.00,Wunderground v.1.15,2013-01-01 22:08:00,
2013-01-01 17:09:00,20.1,9.9,30.15,NW,315,0.0,2.0,64,0.00,,,0.00,Wunderground v.1.15,2013-01-01 22:09:00,
2013-01-01 17:10:00,20.0,10.1,30.15,NW,315,0.0,1.0,65,0.00,,,0.00,Wunderground v.1.15,2013-01-01 22:10:00,
2013-01-01 17:12:00,19.9,10.0,30.16,WNW,293,1.0,2.0,65,0.00,,,0.00,Wunderground v.1.15,2013-01-01 22:12:00,
2013-01-01 17:14:00,19.8,9.9,30.15,WNW,294,0.0,2.0,65,0.00,,,0.00,Wunderground v.1.15,2013-01-01 22:14:00,
2013-01-01 17:15:00,19.8,9.9,30.15,West,274,1.0,2.0,65,0.00,,,0.00,Wunderground v.1.15,2013-01-01 22:15:00,
2013-01-01 17:17:00,19.7,9.8,30.15,West,276,1.0,2.0,65,0.00,,,0.00,Wunderground v.1.15,2013-01-01 22:17:00,
2013-01-01 17:19:00,19.6,9.7,30.15,West,281,1.0,2.0,65,0.00,,,0.00,Wunderground v.1.15,2013-01-01 22:19:00,
2013-01-01 17:21:00,19.7,10.2,30.15,West,279,0.0,1.0,66,0.00,,,0.00,Wunderground v.1.15,2013-01-01 22:21:00,
2013-01-01 17:22:00,19.6,10.1,30.16,West,280,1.0,1.0,66,0.00,,,0.00,Wunderground v.1.15,2013-01-01 22:22:00,
2013-01-01 17:24:00,19.6,10.1,30.16,West,280,0.0,1.0,66,0.00,,,0.00,Wunderground v.1.15,2013-01-01 22:24:00,
2013-01-01 17:26:00,19.4,9.9,30.16,West,280,0.0,1.0,66,0.00,,,0.00,Wunderground v.1.15,2013-01-01 22:26:00,
2013-01-01 17:27:00,19.4,9.9,30.16,West,280,1.0,1.0,66,0.00,,,0.00,Wunderground v.1.15,2013-01-01 22:27:00,
2013-01-01 17:29:00,19.3,10.1,30.16,West,280,0.0,1.0,67,0.00,,,0.00,Wunderground v.1.15,2013-01-01 22:29:00,
2013-01-01 17:30:00,19.3,10.1,30.16,West,281,0.0,1.0,67,0.00,,,0.00,Wunderground v.1.15,2013-01-01 22:30:00,
2013-01-01 17:31:00,19.2,10.0,30.16,West,280,0.0,1.0,67,0.00,,,0.00,Wunderground v.1.15,2013-01-01 22:31:00,
2013-01-01 17:32:00,19.2,10.0,30.16,West,280,1.0,1.0,67,0.00,,,0.00,Wunderground v.1.15,2013-01-01 22:32:00,
2013-01-01 17:34:00,19.1,9.9,30.16,West,281,0.0,1.0,67,0.00,,,0.00,Wunderground v.1.15,2013-01-01 22:34:00,
2013-01-01 17:35:00,19.0,9.8,30.16,West,280,1.0,1.0,67,0.00,,,0.00,Wunderground v.1.15,2013-01-01 22:35:00,
2013-01-01 17:36:00,19.0,9.8,30.16,West,280,0.0,1.0,67,0.00,,,0.00,Wunderground v.1.15,2013-01-01 22:36:00,
2013-01-01 17:38:00,18.9,9.7,30.16,West,280,0.0,1.0,67,0.00,,,0.00,Wunderground v.1.15,2013-01-01 22:38:00,
2013-01-01 17:39:00,18.8,10.0,30.15,West,280,0.0,0.0,68,0.00,,,0.00,Wunderground v.1.15,2013-01-01 22:39:00,
2013-01-01 17:40:00,18.7,9.9,30.15,West,280,0.0,0.0,68,0.00,,,0.00,Wunderground v.1.15,2013-01-01 22:40:00,
2013-01-01 17:41:00,18.6,9.8,30.15,West,280,0.0,0.0,68,0.00,,,0.00,Wunderground v.1.15,2013-01-01 22:41:00,
2013-01-01 17:43:00,18.5,9.7,30.16,West,280,0.0,0.0,68,0.00,,,0.00,Wunderground v.1.15,2013-01-01 22:43:00,
2013-01-01 17:45:00,18.3,9.5,30.15,West,280,0.0,0.0,68,0.00,,,0.00,Wunderground v.1.15,2013-01-01 22:45:00,
2013-01-01 17:46:00,18.2,9.7,30.16,West,280,0.0,0.0,69,0.00,,,0.00,Wunderground v.1.15,2013-01-01 22:46:00,
2013-01-01 17:48:00,18.0,9.9,30.16,West,280,0.0,0.0,70,0.00,,,0.00,Wunderground v.1.15,2013-01-01 22:48:00,
2013-01-01 17:50:00,18.0,9.9,30.16,West,280,0.0,0.0,70,0.00,,,0.00,Wunderground v.1.15,2013-01-01 22:50:00,
2013-01-01 17:51:00,17.9,9.8,30.16,West,280,0.0,0.0,70,0.00,,,0.00,Wunderground v.1.15,2013-01-01 22:51:00,
2013-01-01 17:53:00,17.9,9.8,30.16,West,280,0.0,1.0,70,0.00,,,0.00,Wunderground v.1.15,2013-01-01 22:53:00,
2013-01-01 17:55:00,17.8,9.7,30.16,West,280,0.0,1.0,70,0.00,,,0.00,Wunderground v.1.15,2013-01-01 22:55:00,
2013-01-01 17:56:00,17.7,9.6,30.16,West,281,0.0,1.0,70,0.00,,,0.00,Wunderground v.1.15,2013-01-01 22:56:00,
2013-01-01 17:57:00,17.7,9.6,30.16,West,280,1.0,1.0,70,0.00,,,0.00,Wunderground v.1.15,2013-01-01 22:57:00,
2013-01-01 17:58:00,17.6,9.5,30.16,West,280,0.0,1.0,70,0.00,,,0.00,Wunderground v.1.15,2013-01-01 22:58:00,
2013-01-01 18:00:00,17.5,9.4,30.16,West,280,1.0,1.0,70,0.00,,,0.00,Wunderground v.1.15,2013-01-01 23:00:00,
2013-01-01 18:01:00,17.5,9.4,30.16,West,280,0.0,1.0,70,0.00,,,0.00,Wunderground v.1.15,2013-01-01 23:01:00,
2013-01-01 18:02:00,17.5,9.4,30.16,West,281,1.0,1.0,70,0.00,,,0.00,Wunderground v.1.15,2013-01-01 23:02:00,
2013-01-01 18:03:00,17.5,9.7,30.16,West,278,1.0,1.0,71,0.00,,,0.00,Wunderground v.1.15,2013-01-01 23:03:00,
2013-01-01 18:05:00,17.6,9.8,30.16,West,273,1.0,1.0,71,0.00,,,0.00,Wunderground v.1.15,2013-01-01 23:05:00,
2013-01-01 18:06:00,17.7,9.6,30.15,West,273,1.0,1.0,70,0.00,,,0.00,Wunderground v.1.15,2013-01-01 23:06:00,
2013-01-01 18:07:00,17.8,9.7,30.15,West,273,1.0,1.0,70,0.00,,,0.00,Wunderground v.1.15,2013-01-01 23:07:00,
2013-01-01 18:08:00,17.8,9.7,30.15,West,273,0.0,1.0,70,0.00,,,0.00,Wunderground v.1.15,2013-01-01 23:08:00,
2013-01-01 18:10:00,17.7,9.6,30.15,West,273,0.0,1.0,70,0.00,,,0.00,Wunderground v.1.15,2013-01-01 23:10:00,
2013-01-01 18:11:00,17.7,9.2,30.15,West,273,0.0,1.0,69,0.00,,,0.00,Wunderground v.1.15,2013-01-01 23:11:00,
2013-01-01 18:12:00,17.6,9.2,30.15,West,273,0.0,1.0,69,0.00,,,0.00,Wunderground v.1.15,2013-01-01 23:12:00,
2013-01-01 18:14:00,17.5,9.1,30.15,West,273,0.0,1.0,69,0.00,,,0.00,Wunderground v.1.15,2013-01-01 23:14:00,
2013-01-01 18:15:00,17.4,9.3,30.15,West,273,0.0,1.0,70,0.00,,,0.00,Wunderground v.1.15,2013-01-01 23:15:00,
2013-01-01 18:16:00,17.4,9.3,30.15,West,273,0.0,1.0,70,0.00,,,0.00,Wunderground v.1.15,2013-01-01 23:16:00,
2013-01-01 18:18:00,17.3,9.2,30.15,West,273,0.0,1.0,70,0.00,,,0.00,Wunderground v.1.15,2013-01-01 23:18:00,
2013-01-01 18:19:00,17.1,9.0,30.15,West,273,0.0,1.0,70,0.00,,,0.00,Wunderground v.1.15,2013-01-01 23:19:00,
2013-01-01 18:20:00,17.0,8.9,30.15,West,273,0.0,0.0,70,0.00,,,0.00,Wunderground v.1.15,2013-01-01 23:20:00,
2013-01-01 18:21:00,16.9,8.8,30.15,West,273,0.0,0.0,70,0.00,,,0.00,Wunderground v.1.15,2013-01-01 23:21:00,
2013-01-01 18:23:00,16.7,8.6,30.15,West,273,0.0,0.0,70,0.00,,,0.00,Wunderground v.1.15,2013-01-01 23:23:00,
2013-01-01 18:24:00,16.6,8.5,30.15,West,273,0.0,0.0,70,0.00,,,0.00,Wunderground v.1.15,2013-01-01 23:24:00,
2013-01-01 18:26:00,16.4,8.3,30.15,West,273,0.0,0.0,70,0.00,,,0.00,Wunderground v.1.15,2013-01-01 23:26:00,
2013-01-01 18:28:00,16.1,8.0,30.15,West,273,0.0,0.0,70,0.00,,,0.00,Wunderground v.1.15,2013-01-01 23:28:00,
2013-01-01 18:29:00,16.0,8.3,30.15,West,273,0.0,0.0,71,0.00,,,0.00,Wunderground v.1.15,2013-01-01 23:29:00,
2013-01-01 18:31:00,15.7,8.3,30.15,West,273,0.0,0.0,72,0.00,,,0.00,Wunderground v.1.15,2013-01-01 23:31:00,
2013-01-01 18:33:00,15.5,8.1,30.15,West,273,0.0,0.0,72,0.00,,,0.00,Wunderground v.1.15,2013-01-01 23:33:00,
2013-01-01 18:34:00,15.4,8.0,30.15,West,273,0.0,0.0,72,0.00,,,0.00,Wunderground v.1.15,2013-01-01 23:34:00,
2013-01-01 18:36:00,15.2,8.1,30.15,West,273,0.0,0.0,73,0.00,,,0.00,Wunderground v.1.15,2013-01-01 23:36:00,
2013-01-01 18:38:00,15.0,7.9,30.15,West,273,0.0,0.0,73,0.00,,,0.00,Wunderground v.1.15,2013-01-01 23:38:00,
2013-01-01 18:39:00,14.9,7.8,30.15,West,273,0.0,0.0,73,0.00,,,0.00,Wunderground v.1.15,2013-01-01 23:39:00,
2013-01-01 18:41:00,14.7,7.9,30.15,West,273,0.0,0.0,74,0.00,,,0.00,Wunderground v.1.15,2013-01-01 23:41:00,
2013-01-01 18:42:00,14.6,7.8,30.15,West,273,0.0,0.0,74,0.00,,,0.00,Wunderground v.1.15,2013-01-01 23:42:00,
2013-01-01 18:43:00,14.5,7.7,30.15,West,273,0.0,0.0,74,0.00,,,0.00,Wunderground v.1.15,2013-01-01 23:43:00,
2013-01-01 18:44:00,14.3,7.5,30.15,West,273,0.0,0.0,74,0.00,,,0.00,Wunderground v.1.15,2013-01-01 23:44:00,
2013-01-01 18:46:00,14.1,7.3,30.15,West,273,0.0,0.0,74,0.00,,,0.00,Wunderground v.1.15,2013-01-01 23:46:00,
2013-01-01 18:47:00,14.0,7.2,30.15,West,273,0.0,0.0,74,0.00,,,0.00,Wunderground v.1.15,2013-01-01 23:47:00,
2013-01-01 18:48:00,13.9,7.4,30.15,West,273,0.0,0.0,75,0.00,,,0.00,Wunderground v.1.15,2013-01-01 23:48:00,
2013-01-01 18:50:00,13.8,7.3,30.15,West,273,0.0,0.0,75,0.00,,,0.00,Wunderground v.1.15,2013-01-01 23:50:00,
2013-01-01 18:51:00,13.7,7.2,30.15,West,273,0.0,0.0,75,0.00,,,0.00,Wunderground v.1.15,2013-01-01 23:51:00,
2013-01-01 18:52:00,13.6,7.4,30.15,West,273,0.0,0.0,76,0.00,,,0.00,Wunderground v.1.15,2013-01-01 23:52:00,
2013-01-01 18:53:00,13.5,7.3,30.15,West,273,0.0,0.0,76,0.00,,,0.00,Wunderground v.1.15,2013-01-01 23:53:00,
2013-01-01 18:55:00,13.4,7.2,30.15,West,273,0.0,0.0,76,0.00,,,0.00,Wunderground v.1.15,2013-01-01 23:55:00,
2013-01-01 18:56:00,13.4,7.2,30.15,West,273,0.0,0.0,76,0.00,,,0.00,Wunderground v.1.15,2013-01-01 23:56:00,
2013-01-01 18:57:00,13.3,7.1,30.15,West,273,0.0,0.0,76,0.00,,,0.00,Wunderground v.1.15,2013-01-01 23:57:00,
2013-01-01 18:58:00,13.3,7.4,30.15,West,273,0.0,0.0,77,0.00,,,0.00,Wunderground v.1.15,2013-01-01 23:58:00,
2013-01-01 19:00:00,13.2,7.6,30.15,West,273,0.0,0.0,78,0.00,,,0.00,Wunderground v.1.15,2013-01-02 00:00:00,
2013-01-01 19:01:00,13.3,7.7,30.15,West,273,0.0,1.0,78,0.00,,,0.00,Wunderground v.1.15,2013-01-02 00:01:00,
2013-01-01 19:02:00,13.3,7.7,30.15,West,273,0.0,1.0,78,0.00,,,0.00,Wunderground v.1.15,2013-01-02 00:02:00,
2013-01-01 19:03:00,13.3,7.7,30.15,West,273,0.0,1.0,78,0.00,,,0.00,Wunderground v.1.15,2013-01-02 00:03:00,
2013-01-01 19:06:00,13.5,8.2,30.15,West,273,0.0,1.0,79,0.00,,,0.00,Wunderground v.1.15,2013-01-02 00:06:00,
2013-01-01 19:07:00,13.7,8.4,30.15,West,273,0.0,1.0,79,0.00,,,0.00,Wunderground v.1.15,2013-01-02 00:07:00,
2013-01-01 19:08:00,13.8,8.5,30.15,West,273,0.0,1.0,79,0.00,,,0.00,Wunderground v.1.15,2013-01-02 00:08:00,
2013-01-01 19:11:00,13.9,8.6,30.15,West,273,0.0,0.0,79,0.00,,,0.00,Wunderground v.1.15,2013-01-02 00:11:00,
2013-01-01 19:12:00,14.0,8.4,30.15,West,273,0.0,1.0,78,0.00,,,0.00,Wunderground v.1.15,2013-01-02 00:12:00,
2013-01-01 19:14:00,14.1,8.5,30.15,West,273,0.0,1.0,78,0.00,,,0.00,Wunderground v.1.15,2013-01-02 00:14:00,
2013-01-01 19:16:00,14.1,8.8,30.15,West,273,0.0,1.0,79,0.00,,,0.00,Wunderground v.1.15,2013-01-02 00:16:00,
2013-01-01 19:17:00,14.1,8.8,30.15,West,273,0.0,1.0,79,0.00,,,0.00,Wunderground v.1.15,2013-01-02 00:17:00,
2013-01-01 19:19:00,14.1,8.8,30.15,West,273,0.0,1.0,79,0.00,,,0.00,Wunderground v.1.15,2013-01-02 00:19:00,
2013-01-01 19:21:00,14.1,8.8,30.15,West,273,0.0,0.0,79,0.00,,,0.00,Wunderground v.1.15,2013-01-02 00:21:00,
2013-01-01 19:22:00,14.0,8.7,30.15,West,273,0.0,0.0,79,0.00,,,0.00,Wunderground v.1.15,2013-01-02 00:22:00,
2013-01-01 19:24:00,13.9,8.6,30.15,West,273,0.0,0.0,79,0.00,,,0.00,Wunderground v.1.15,2013-01-02 00:24:00,
2013-01-01 19:26:00,13.9,8.6,30.15,West,273,0.0,0.0,79,0.00,,,0.00,Wunderground v.1.15,2013-01-02 00:26:00,
2013-01-01 19:27:00,13.8,8.5,30.16,West,273,0.0,0.0,79,0.00,,,0.00,Wunderground v.1.15,2013-01-02 00:27:00,
2013-01-01 19:29:00,13.7,8.4,30.15,West,273,0.0,0.0,79,0.00,,,0.00,Wunderground v.1.15,2013-01-02 00:29:00,
2013-01-01 19:31:00,13.6,8.3,30.15,West,273,0.0,0.0,79,0.00,,,0.00,Wunderground v.1.15,2013-01-02 00:31:00,
2013-01-01 19:33:00,13.4,8.1,30.15,West,273,0.0,0.0,79,0.00,,,0.00,Wunderground v.1.15,2013-01-02 00:33:00,
2013-01-01 19:34:00,13.3,8.0,30.15,West,273,0.0,0.0,79,0.00,,,0.00,Wunderground v.1.15,2013-01-02 00:34:00,
2013-01-01 19:36:00,13.2,7.9,30.15,West,273,0.0,0.0,79,0.00,,,0.00,Wunderground v.1.15,2013-01-02 00:36:00,
2013-01-01 19:37:00,13.1,7.8,30.15,West,273,0.0,0.0,79,0.00,,,0.00,Wunderground v.1.15,2013-01-02 00:37:00,
2013-01-01 19:38:00,13.0,7.7,30.14,West,273,0.0,0.0,79,0.00,,,0.00,Wunderground v.1.15,2013-01-02 00:38:00,
2013-01-01 19:39:00,12.9,7.6,30.14,West,273,0.0,0.0,79,0.00,,,0.00,Wunderground v.1.15,2013-01-02 00:39:00,
2013-01-01 19:41:00,12.7,7.4,30.14,West,273,0.0,0.0,79,0.00,,,0.00,Wunderground v.1.15,2013-01-02 00:41:00,
2013-01-01 19:42:00,12.6,7.3,30.14,West,273,0.0,0.0,79,0.00,,,0.00,Wunderground v.1.15,2013-01-02 00:42:00,
2013-01-01 19:43:00,12.5,7.2,30.14,West,273,0.0,0.0,79,0.00,,,0.00,Wunderground v.1.15,2013-01-02 00:43:00,
2013-01-01 19:44:00,12.4,7.1,30.14,West,273,0.0,0.0,79,0.00,,,0.00,Wunderground v.1.15,2013-01-02 00:44:00,
2013-01-01 19:46:00,12.4,7.4,30.14,West,273,0.0,0.0,80,0.00,,,0.00,Wunderground v.1.15,2013-01-02 00:46:00,
2013-01-01 19:47:00,12.4,7.4,30.14,West,273,0.0,0.0,80,0.00,,,0.00,Wunderground v.1.15,2013-01-02 00:47:00,
2013-01-01 19:48:00,12.3,7.6,30.14,West,273,0.0,0.0,81,0.00,,,0.00,Wunderground v.1.15,2013-01-02 00:48:00,
2013-01-01 19:50:00,12.4,7.7,30.14,West,273,0.0,0.0,81,0.00,,,0.00,Wunderground v.1.15,2013-01-02 00:50:00,
2013-01-01 19:52:00,12.3,7.6,30.14,West,273,0.0,0.0,81,0.00,,,0.00,Wunderground v.1.15,2013-01-02 00:52:00,
2013-01-01 19:53:00,12.2,7.5,30.14,West,273,0.0,0.0,81,0.00,,,0.00,Wunderground v.1.15,2013-01-02 00:53:00,
2013-01-01 19:55:00,12.2,7.8,30.13,West,273,0.0,0.0,82,0.00,,,0.00,Wunderground v.1.15,2013-01-02 00:55:00,
2013-01-01 19:57:00,12.1,7.4,30.13,West,273,0.0,0.0,81,0.00,,,0.00,Wunderground v.1.15,2013-01-02 00:57:00,
2013-01-01 19:58:00,12.0,7.3,30.13,West,273,0.0,0.0,81,0.00,,,0.00,Wunderground v.1.15,2013-01-02 00:58:00,
2013-01-01 20:00:00,11.7,7.0,30.13,West,273,0.0,0.0,81,0.00,,,0.00,Wunderground v.1.15,2013-01-02 01:00:00,
2013-01-01 20:02:00,11.5,6.8,30.13,West,273,0.0,0.0,81,0.00,,,0.00,Wunderground v.1.15,2013-01-02 01:02:00,
2013-01-01 20:03:00,11.5,6.8,30.13,West,273,0.0,0.0,81,0.00,,,0.00,Wunderground v.1.15,2013-01-02 01:03:00,
2013-01-01 20:05:00,11.3,6.9,30.13,West,273,0.0,0.0,82,0.00,,,0.00,Wunderground v.1.15,2013-01-02 01:05:00,
2013-01-01 20:07:00,11.2,6.8,30.13,West,273,0.0,0.0,82,0.00,,,0.00,Wunderground v.1.15,2013-01-02 01:07:00,
2013-01-01 20:08:00,11.2,6.8,30.13,West,273,0.0,0.0,82,0.00,,,0.00,Wunderground v.1.15,2013-01-02 01:08:00,
2013-01-01 20:11:00,11.1,6.9,30.13,West,273,0.0,0.0,83,0.00,,,0.00,Wunderground v.1.15,2013-01-02 01:11:00,
2013-01-01 20:12:00,11.0,6.8,30.13,West,273,0.0,0.0,83,0.00,,,0.00,Wunderground v.1.15,2013-01-02 01:12:00,
2013-01-01 20:13:00,11.0,6.8,30.13,West,273,0.0,0.0,83,0.00,,,0.00,Wunderground v.1.15,2013-01-02 01:13:00,
2013-01-01 20:16:00,10.9,6.8,30.13,West,273,0.0,0.0,83,0.00,,,0.00,Wunderground v.1.15,2013-01-02 01:16:00,
2013-01-01 20:17:00,10.7,6.6,30.13,West,273,0.0,0.0,83,0.00,,,0.00,Wunderground v.1.15,2013-01-02 01:17:00,
2013-01-01 20:18:00,10.7,6.6,30.13,West,273,0.0,0.0,83,0.00,,,0.00,Wunderground v.1.15,2013-01-02 01:18:00,
2013-01-01 20:21:00,10.6,6.5,30.13,West,273,0.0,0.0,83,0.00,,,0.00,Wunderground v.1.15,2013-01-02 01:21:00,
2013-01-01 20:22:00,10.5,6.6,30.13,West,273,0.0,0.0,84,0.00,,,0.00,Wunderground v.1.15,2013-01-02 01:22:00,
2013-01-01 20:23:00,10.5,6.6,30.13,West,273,0.0,0.0,84,0.00,,,0.00,Wunderground v.1.15,2013-01-02 01:23:00,
2013-01-01 20:26:00,10.4,6.5,30.13,West,273,0.0,0.0,84,0.00,,,0.00,Wunderground v.1.15,2013-01-02 01:26:00,
2013-01-01 20:28:00,10.3,6.4,30.13,West,273,0.0,0.0,84,0.00,,,0.00,Wunderground v.1.15,2013-01-02 01:28:00,
2013-01-01 20:31:00,10.3,6.4,30.13,West,273,0.0,0.0,84,0.00,,,0.00,Wunderground v.1.15,2013-01-02 01:31:00,
2013-01-01 20:33:00,10.2,6.3,30.13,West,273,0.0,0.0,84,0.00,,,0.00,Wunderground v.1.15,2013-01-02 01:33:00,
2013-01-01 20:34:00,10.2,6.3,30.13,West,273,0.0,0.0,84,0.00,,,0.00,Wunderground v.1.15,2013-01-02 01:34:00,
2013-01-01 20:36:00,10.1,6.2,30.13,West,273,0.0,0.0,84,0.00,,,0.00,Wunderground v.1.15,2013-01-02 01:36:00,
2013-01-01 20:38:00,10.0,6.1,30.13,West,273,0.0,0.0,84,0.00,,,0.00,Wunderground v.1.15,2013-01-02 01:38:00,
2013-01-01 20:39:00,9.9,6.0,30.13,West,273,0.0,0.0,84,0.00,,,0.00,Wunderground v.1.15,2013-01-02 01:39:00,
2013-01-01 20:41:00,9.9,6.3,30.13,West,273,0.0,0.0,85,0.00,,,0.00,Wunderground v.1.15,2013-01-02 01:41:00,
2013-01-01 20:43:00,9.8,6.2,30.13,West,273,0.0,0.0,85,0.00,,,0.00,Wunderground v.1.15,2013-01-02 01:43:00,
2013-01-01 20:45:00,9.7,6.1,30.13,West,273,0.0,0.0,85,0.00,,,0.00,Wunderground v.1.15,2013-01-02 01:45:00,
2013-01-01 20:46:00,9.6,6.0,30.13,West,273,0.0,0.0,85,0.00,,,0.00,Wunderground v.1.15,2013-01-02 01:46:00,
2013-01-01 20:48:00,9.6,6.0,30.13,West,273,0.0,0.0,85,0.00,,,0.00,Wunderground v.1.15,2013-01-02 01:48:00,
2013-01-01 20:49:00,9.5,5.9,30.13,West,273,0.0,0.0,85,0.00,,,0.00,Wunderground v.1.15,2013-01-02 01:49:00,
2013-01-01 20:50:00,9.5,5.9,30.13,West,273,0.0,0.0,85,0.00,,,0.00,Wunderground v.1.15,2013-01-02 01:50:00,
2013-01-01 20:51:00,9.4,5.8,30.13,West,273,0.0,0.0,85,0.00,,,0.00,Wunderground v.1.15,2013-01-02 01:51:00,
2013-01-01 20:54:00,9.4,5.8,30.13,West,273,0.0,0.0,85,0.00,,,0.00,Wunderground v.1.15,2013-01-02 01:54:00,
2013-01-01 20:55:00,9.3,6.0,30.12,West,273,0.0,0.0,86,0.00,,,0.00,Wunderground v.1.15,2013-01-02 01:55:00,
2013-01-01 20:57:00,9.3,6.0,30.12,West,273,0.0,0.0,86,0.00,,,0.00,Wunderground v.1.15,2013-01-02 01:57:00,
2013-01-01 20:59:00,9.2,5.9,30.12,West,273,0.0,0.0,86,0.00,,,0.00,Wunderground v.1.15,2013-01-02 01:59:00,
2013-01-01 21:01:00,9.2,5.9,30.13,West,273,0.0,0.0,86,0.00,,,0.00,Wunderground v.1.15,2013-01-02 02:01:00,
2013-01-01 21:02:00,9.1,5.8,30.13,West,273,0.0,0.0,86,0.00,,,0.00,Wunderground v.1.15,2013-01-02 02:02:00,
2013-01-01 21:04:00,9.1,5.8,30.13,West,273,0.0,0.0,86,0.00,,,0.00,Wunderground v.1.15,2013-01-02 02:04:00,
2013-01-01 21:06:00,9.2,6.1,30.13,West,273,0.0,1.0,87,0.00,,,0.00,Wunderground v.1.15,2013-01-02 02:06:00,
2013-01-01 21:07:00,9.2,6.1,30.13,West,273,0.0,1.0,87,0.00,,,0.00,Wunderground v.1.15,2013-01-02 02:07:00,
2013-01-01 21:09:00,9.3,6.2,30.13,West,273,0.0,1.0,87,0.00,,,0.00,Wunderground v.1.15,2013-01-02 02:09:00,
2013-01-01 21:11:00,9.3,6.2,30.12,West,273,0.0,0.0,87,0.00,,,0.00,Wunderground v.1.15,2013-01-02 02:11:00,
2013-01-01 21:12:00,9.4,6.3,30.12,West,273,0.0,0.0,87,0.00,,,0.00,Wunderground v.1.15,2013-01-02 02:12:00,
2013-01-01 21:14:00,9.4,6.3,30.12,West,273,0.0,0.0,87,0.00,,,0.00,Wunderground v.1.15,2013-01-02 02:14:00,
2013-01-01 21:16:00,9.5,6.4,30.12,West,273,0.0,0.0,87,0.00,,,0.00,Wunderground v.1.15,2013-01-02 02:16:00,
2013-01-01 21:17:00,9.4,6.3,30.12,West,273,0.0,0.0,87,0.00,,,0.00,Wunderground v.1.15,2013-01-02 02:17:00,
2013-01-01 21:19:00,9.5,6.4,30.12,West,273,0.0,0.0,87,0.00,,,0.00,Wunderground v.1.15,2013-01-02 02:19:00,
2013-01-01 21:20:00,9.5,6.4,30.12,West,273,0.0,0.0,87,0.00,,,0.00,Wunderground v.1.15,2013-01-02 02:20:00,
2013-01-01 21:22:00,9.5,6.4,30.12,West,273,0.0,1.0,87,0.00,,,0.00,Wunderground v.1.15,2013-01-02 02:22:00,
2013-01-01 21:23:00,9.6,6.8,30.12,West,273,0.0,1.0,88,0.00,,,0.00,Wunderground v.1.15,2013-01-02 02:23:00,
2013-01-01 21:24:00,9.7,6.9,30.12,West,273,0.0,1.0,88,0.00,,,0.00,Wunderground v.1.15,2013-01-02 02:24:00,
2013-01-01 21:25:00,9.8,7.0,30.12,West,273,0.0,1.0,88,0.00,,,0.00,Wunderground v.1.15,2013-01-02 02:25:00,
2013-01-01 21:27:00,9.8,7.0,30.12,West,273,0.0,1.0,88,0.00,,,0.00,Wunderground v.1.15,2013-01-02 02:27:00,
2013-01-01 21:28:00,9.8,7.0,30.12,West,273,0.0,1.0,88,0.00,,,0.00,Wunderground v.1.15,2013-01-02 02:28:00,
2013-01-01 21:30:00,9.8,6.7,30.12,West,273,0.0,0.0,87,0.00,,,0.00,Wunderground v.1.15,2013-01-02 02:30:00,
2013-01-01 21:32:00,9.7,6.6,30.12,West,273,0.0,0.0,87,0.00,,,0.00,Wunderground v.1.15,2013-01-02 02:32:00,
2013-01-01 21:33:00,9.6,6.5,30.12,West,273,0.0,0.0,87,0.00,,,0.00,Wunderground v.1.15,2013-01-02 02:33:00,
2013-01-01 21:35:00,9.5,6.4,30.12,West,273,0.0,0.0,87,0.00,,,0.00,Wunderground v.1.15,2013-01-02 02:35:00,
2013-01-01 21:37:00,9.5,6.4,30.13,West,273,0.0,0.0,87,0.00,,,0.00,Wunderground v.1.15,2013-01-02 02:37:00,
2013-01-01 21:38:00,9.5,6.4,30.13,West,273,1.0,1.0,87,0.00,,,0.00,Wunderground v.1.15,2013-01-02 02:38:00,
2013-01-01 21:40:00,9.6,6.8,30.13,West,268,1.0,1.0,88,0.00,,,0.00,Wunderground v.1.15,2013-01-02 02:40:00,
2013-01-01 21:41:00,9.8,7.0,30.13,WSW,252,1.0,1.0,88,0.00,,,0.00,Wunderground v.1.15,2013-01-02 02:41:00,
2013-01-01 21:42:00,10.1,7.5,30.13,WSW,240,2.0,2.0,89,0.00,,,0.00,Wunderground v.1.15,2013-01-02 02:42:00,
2013-01-01 21:44:00,10.4,7.8,30.13,WSW,240,2.0,2.0,89,0.00,,,0.00,Wunderground v.1.15,2013-01-02 02:44:00,
2013-01-01 21:45:00,10.7,7.8,30.13,WSW,242,1.0,2.0,88,0.00,,,0.00,Wunderground v.1.15,2013-01-02 02:45:00,
2013-01-01 21:46:00,10.9,8.0,30.13,WSW,237,2.0,2.0,88,0.00,,,0.00,Wunderground v.1.15,2013-01-02 02:46:00,
2013-01-01 21:47:00,11.1,8.2,30.13,WSW,250,1.0,2.0,88,0.00,,,0.00,Wunderground v.1.15,2013-01-02 02:47:00,
2013-01-01 21:49:00,11.4,8.3,30.13,WSW,240,2.0,3.0,87,0.00,,,0.00,Wunderground v.1.15,2013-01-02 02:49:00,
2013-01-01 21:50:00,11.5,8.4,30.13,WSW,243,1.0,1.0,87,0.00,,,0.00,Wunderground v.1.15,2013-01-02 02:50:00,
2013-01-01 21:51:00,11.7,8.6,30.13,WSW,243,1.0,2.0,87,0.00,,,0.00,Wunderground v.1.15,2013-01-02 02:51:00,
2013-01-01 21:52:00,11.9,8.5,30.13,WSW,240,2.0,2.0,86,0.00,,,0.00,Wunderground v.1.15,2013-01-02 02:52:00,
2013-01-01 21:54:00,12.2,8.8,30.13,WSW,243,1.0,2.0,86,0.00,,,0.00,Wunderground v.1.15,2013-01-02 02:54:00,
2013-01-01 21:55:00,12.4,8.7,30.13,WSW,243,1.0,2.0,85,0.00,,,0.00,Wunderground v.1.15,2013-01-02 02:55:00,
2013-01-01 21:56:00,12.5,8.8,30.13,WSW,248,1.0,2.0,85,0.00,,,0.00,Wunderground v.1.15,2013-01-02 02:56:00,
2013-01-01 21:57:00,12.7,9.0,30.14,WSW,237,2.0,2.0,85,0.00,,,0.00,Wunderground v.1.15,2013-01-02 02:57:00,
2013-01-01 21:59:00,13.0,9.1,30.13,WSW,243,1.0,3.0,84,0.00,,,0.00,Wunderground v.1.15,2013-01-02 02:59:00,
2013-01-01 22:00:00,13.2,9.3,30.13,WSW,250,1.0,2.0,84,0.00,,,0.00,Wunderground v.1.15,2013-01-02 03:00:00,
2013-01-01 22:01:00,13.2,9.3,30.13,WSW,250,1.0,2.0,84,0.00,,,0.00,Wunderground v.1.15,2013-01-02 03:01:00,
2013-01-01 22:02:00,13.4,9.2,30.13,WSW,243,2.0,2.0,83,0.00,,,0.00,Wunderground v.1.15,2013-01-02 03:02:00,
2013-01-01 22:04:00,13.6,9.4,30.14,WSW,246,2.0,2.0,83,0.00,,,0.00,Wunderground v.1.15,2013-01-02 03:04:00,
2013-01-01 22:05:00,13.7,9.5,30.14,WSW,246,1.0,2.0,83,0.00,,,0.00,Wunderground v.1.15,2013-01-02 03:05:00,
2013-01-01 22:06:00,13.8,9.6,30.14,WSW,246,0.0,2.0,83,0.00,,,0.00,Wunderground v.1.15,2013-01-02 03:06:00,
2013-01-01 22:07:00,13.9,9.7,30.14,SW,233,2.0,2.0,83,0.00,,,0.00,Wunderground v.1.15,2013-01-02 03:07:00,
2013-01-01 22:09:00,14.0,9.5,30.14,WSW,253,1.0,2.0,82,0.00,,,0.00,Wunderground v.1.15,2013-01-02 03:09:00,
2013-01-01 22:11:00,14.2,9.7,30.14,WSW,243,1.0,2.0,82,0.00,,,0.00,Wunderground v.1.15,2013-01-02 03:11:00,
2013-01-01 22:12:00,14.3,9.8,30.14,WSW,248,2.0,3.0,82,0.00,,,0.00,Wunderground v.1.15,2013-01-02 03:12:00,
2013-01-01 22:14:00,14.5,10.0,30.14,WSW,248,1.0,3.0,82,0.00,,,0.00,Wunderground v.1.15,2013-01-02 03:14:00,
2013-01-01 22:16:00,14.6,9.8,30.14,WSW,243,2.0,3.0,81,0.00,,,0.00,Wunderground v.1.15,2013-01-02 03:16:00,
2013-01-01 22:17:00,14.7,9.9,30.14,WSW,253,2.0,3.0,81,0.00,,,0.00,Wunderground v.1.15,2013-01-02 03:17:00,
2013-01-01 22:18:00,14.8,10.0,30.14,WSW,243,2.0,3.0,81,0.00,,,0.00,Wunderground v.1.15,2013-01-02 03:18:00,
2013-01-01 22:20:00,14.9,10.1,30.14,WSW,238,2.0,2.0,81,0.00,,,0.00,Wunderground v.1.15,2013-01-02 03:20:00,
2013-01-01 22:21:00,15.0,9.9,30.14,WSW,253,2.0,3.0,80,0.00,,,0.00,Wunderground v.1.15,2013-01-02 03:21:00,
2013-01-01 22:22:00,15.1,10.0,30.14,WSW,249,3.0,3.0,80,0.00,,,0.00,Wunderground v.1.15,2013-01-02 03:22:00,
2013-01-01 22:23:00,15.2,10.1,30.14,WSW,254,3.0,3.0,80,0.00,,,0.00,Wunderground v.1.15,2013-01-02 03:23:00,
2013-01-01 22:25:00,15.3,10.2,30.14,SW,233,2.0,4.0,80,0.00,,,0.00,Wunderground v.1.15,2013-01-02 03:25:00,
2013-01-01 22:26:00,15.3,10.0,30.14,WSW,246,1.0,4.0,79,0.00,,,0.00,Wunderground v.1.15,2013-01-02 03:26:00,
2013-01-01 22:27:00,15.4,10.1,30.14,WSW,246,1.0,4.0,79,0.00,,,0.00,Wunderground v.1.15,2013-01-02 03:27:00,
2013-01-01 22:28:00,15.4,10.1,30.14,SW,236,2.0,4.0,79,0.00,,,0.00,Wunderground v.1.15,2013-01-02 03:28:00,
2013-01-01 22:30:00,15.4,10.1,30.14,WSW,246,1.0,2.0,79,0.00,,,0.00,Wunderground v.1.15,2013-01-02 03:30:00,
2013-01-01 22:32:00,15.5,10.1,30.14,West,266,1.0,2.0,79,0.00,,,0.00,Wunderground v.1.15,2013-01-02 03:32:00,
2013-01-01 22:33:00,15.5,10.1,30.14,WSW,240,2.0,3.0,79,0.00,,,0.00,Wunderground v.1.15,2013-01-02 03:33:00,
2013-01-01 22:35:00,15.6,10.5,30.14,WSW,249,2.0,3.0,80,0.00,,,0.00,Wunderground v.1.15,2013-01-02 03:35:00,
2013-01-01 22:37:00,15.7,10.3,30.14,WSW,240,2.0,3.0,79,0.00,,,0.00,Wunderground v.1.15,2013-01-02 03:37:00,
2013-01-01 22:38:00,15.8,10.4,30.14,WSW,253,1.0,3.0,79,0.00,,,0.00,Wunderground v.1.15,2013-01-02 03:38:00,
2013-01-01 22:40:00,15.8,10.7,30.14,West,262,1.0,2.0,80,0.00,,,0.00,Wunderground v.1.15,2013-01-02 03:40:00,
2013-01-01 22:42:00,15.9,10.8,30.14,WSW,256,2.0,2.0,80,0.00,,,0.00,Wunderground v.1.15,2013-01-02 03:42:00,
2013-01-01 22:43:00,15.9,10.8,30.14,WSW,252,2.0,2.0,80,0.00,,,0.00,Wunderground v.1.15,2013-01-02 03:43:00,
2013-01-01 22:45:00,16.0,10.6,30.14,West,266,1.0,2.0,79,0.00,,,0.00,Wunderground v.1.15,2013-01-02 03:45:00,
2013-01-01 22:47:00,16.1,10.7,30.14,WSW,246,1.0,2.0,79,0.00,,,0.00,Wunderground v.1.15,2013-01-02 03:47:00,
2013-01-01 22:48:00,16.1,10.7,30.14,WSW,240,1.0,2.0,79,0.00,,,0.00,Wunderground v.1.15,2013-01-02 03:48:00,
2013-01-01 22:51:00,16.2,11.1,30.14,WSW,243,1.0,2.0,80,0.00,,,0.00,Wunderground v.1.15,2013-01-02 03:51:00,
2013-01-01 22:52:00,16.2,11.1,30.14,WSW,256,2.0,2.0,80,0.00,,,0.00,Wunderground v.1.15,2013-01-02 03:52:00,
2013-01-01 22:53:00,16.3,11.2,30.14,WSW,257,1.0,2.0,80,0.00,,,0.00,Wunderground v.1.15,2013-01-02 03:53:00,
2013-01-01 22:56:00,16.3,11.2,30.14,West,269,1.0,2.0,80,0.00,,,0.00,Wunderground v.1.15,2013-01-02 03:56:00,
2013-01-01 22:57:00,16.4,11.3,30.14,West,273,2.0,2.0,80,0.00,,,0.00,Wunderground v.1.15,2013-01-02 03:57:00,
2013-01-01 22:58:00,16.5,11.4,30.14,West,274,2.0,3.0,80,0.00,,,0.00,Wunderground v.1.15,2013-01-02 03:58:00,
2013-01-01 23:01:00,16.7,11.9,30.14,West,274,1.0,1.0,81,0.00,,,0.00,Wunderground v.1.15,2013-01-02 04:01:00,
2013-01-01 23:02:00,16.8,12.0,30.14,WNW,295,3.0,3.0,81,0.00,,,0.00,Wunderground v.1.15,2013-01-02 04:02:00,
2013-01-01 23:04:00,17.0,12.2,30.14,West,274,2.0,3.0,81,0.00,,,0.00,Wunderground v.1.15,2013-01-02 04:04:00,
2013-01-01 23:06:00,17.1,12.3,30.14,WSW,248,2.0,3.0,81,0.00,,,0.00,Wunderground v.1.15,2013-01-02 04:06:00,
2013-01-01 23:07:00,17.1,12.0,30.14,West,275,2.0,3.0,80,0.00,,,0.00,Wunderground v.1.15,2013-01-02 04:07:00,
2013-01-01 23:09:00,17.2,12.1,30.14,West,273,3.0,3.0,80,0.00,,,0.00,Wunderground v.1.15,2013-01-02 04:09:00,
2013-01-01 23:11:00,17.3,12.2,30.14,WNW,282,1.0,3.0,80,0.00,,,0.00,Wunderground v.1.15,2013-01-02 04:11:00,
2013-01-01 23:12:00,17.3,12.2,30.14,West,273,2.0,3.0,80,0.00,,,0.00,Wunderground v.1.15,2013-01-02 04:12:00,
2013-01-01 23:14:00,17.4,12.3,30.14,West,259,2.0,3.0,80,0.00,,,0.00,Wunderground v.1.15,2013-01-02 04:14:00,
2013-01-01 23:16:00,17.4,12.3,30.14,West,263,2.0,3.0,80,0.00,,,0.00,Wunderground v.1.15,2013-01-02 04:16:00,
2013-01-01 23:17:00,17.4,12.3,30.14,West,274,2.0,3.0,80,0.00,,,0.00,Wunderground v.1.15,2013-01-02 04:17:00,
2013-01-01 23:19:00,17.4,12.3,30.14,West,278,2.0,3.0,80,0.00,,,0.00,Wunderground v.1.15,2013-01-02 04:19:00,
2013-01-01 23:21:00,17.4,12.3,30.14,West,274,2.0,3.0,80,0.00,,,0.00,Wunderground v.1.15,2013-01-02 04:21:00,
2013-01-01 23:22:00,17.4,12.3,30.14,West,274,2.0,3.0,80,0.00,,,0.00,Wunderground v.1.15,2013-01-02 04:22:00,
2013-01-01 23:24:00,17.4,12.3,30.14,West,276,2.0,3.0,80,0.00,,,0.00,Wunderground v.1.15,2013-01-02 04:24:00,
2013-01-01 23:26:00,17.5,12.4,30.14,WNW,283,2.0,3.0,80,0.00,,,0.00,Wunderground v.1.15,2013-01-02 04:26:00,
2013-01-01 23:27:00,17.4,12.3,30.14,West,273,2.0,3.0,80,0.00,,,0.00,Wunderground v.1.15,2013-01-02 04:27:00,
2013-01-01 23:29:00,17.5,12.4,30.14,West,264,2.0,3.0,80,0.00,,,0.00,Wunderground v.1.15,2013-01-02 04:29:00,
2013-01-01 23:32:00,17.5,12.4,30.14,West,275,3.0,3.0,80,0.00,,,0.00,Wunderground v.1.15,2013-01-02 04:32:00,
2013-01-01 23:34:00,17.6,12.5,30.14,West,274,1.0,3.0,80,0.00,,,0.00,Wunderground v.1.15,2013-01-02 04:34:00,
2013-01-01 23:37:00,17.6,12.8,30.14,WNW,289,2.0,3.0,81,0.00,,,0.00,Wunderground v.1.15,2013-01-02 04:37:00,
2013-01-01 23:38:00,17.7,12.9,30.14,WSW,256,3.0,3.0,81,0.00,,,0.00,Wunderground v.1.15,2013-01-02 04:38:00,
2013-01-01 23:39:00,17.7,12.9,30.14,WSW,258,2.0,3.0,81,0.00,,,0.00,Wunderground v.1.15,2013-01-02 04:39:00,
2013-01-01 23:41:00,17.7,12.9,30.14,West,264,2.0,3.0,81,0.00,,,0.00,Wunderground v.1.15,2013-01-02 04:41:00,
2013-01-01 23:43:00,17.8,13.0,30.14,WSW,257,2.0,3.0,81,0.00,,,0.00,Wunderground v.1.15,2013-01-02 04:43:00,
2013-01-01 23:44:00,17.8,13.0,30.14,West,260,2.0,3.0,81,0.00,,,0.00,Wunderground v.1.15,2013-01-02 04:44:00,
2013-01-01 23:46:00,17.8,13.0,30.15,WSW,252,3.0,4.0,81,0.00,,,0.00,Wunderground v.1.15,2013-01-02 04:46:00,
2013-01-01 23:48:00,17.8,13.0,30.15,West,271,3.0,4.0,81,0.00,,,0.00,Wunderground v.1.15,2013-01-02 04:48:00,
2013-01-01 23:49:00,17.8,13.0,30.15,West,266,2.0,4.0,81,0.00,,,0.00,Wunderground v.1.15,2013-01-02 04:49:00,
2013-01-01 23:52:00,17.8,12.7,30.15,West,259,1.0,5.0,80,0.00,,,0.00,Wunderground v.1.15,2013-01-02 04:52:00,
2013-01-01 23:53:00,17.8,12.7,30.15,West,263,3.0,5.0,80,0.00,,,0.00,Wunderground v.1.15,2013-01-02 04:53:00,
2013-01-01 23:54:00,17.8,13.0,30.15,West,276,3.0,5.0,81,0.00,,,0.00,Wunderground v.1.15,2013-01-02 04:54:00,
2013-01-01 23:57:00,17.8,12.7,30.15,West,273,2.0,5.0,80,0.00,,,0.00,Wunderground v.1.15,2013-01-02 04:57:00,
2013-01-01 23:58:00,17.7,12.6,30.15,West,267,3.0,5.0,80,0.00,,,0.00,Wunderground v.1.15,2013-01-02 04:58:00,
2013-01-01 23:59:00,17.7,12.6,30.15,WSW,256,3.0,5.0,80,0.00,,,0.00,Wunderground v.1.15,2013-01-02 04:59:00,